EW2975 Weather Reports


Display with metric or nautical units.
time (UTC)temp
F
wind
direction
speed
MPH
gust
MPH
rain 1hr
in
rain 24hr
in
rain mn
in
humidity
%
barometer
mb
20260906203305 97 145 6.0 13.0 0.00 0.00 0.00 43 1011.5
20260906203204 97 162 6.0 13.0 0.00 0.00 0.00 43 1011.4
20260906203105 98 175 6.0 13.0 0.00 0.00 0.00 42 1011.6
20260906203005 98 185 6.0 13.0 0.00 0.00 0.00 42 1011.6
20260906202905 98 198 6.0 12.0 0.00 0.00 0.00 43 1011.7
20260906202805 98 203 6.0 12.0 0.00 0.00 0.00 43 1011.6
20260906202704 97 207 6.0 12.0 0.00 0.00 0.00 42 1011.6
20260906202605 97 201 6.0 12.0 0.00 0.00 0.00 42 1011.6
20260906202505 97 193 6.0 12.0 0.00 0.00 0.00 42 1011.6
20260906202205 98 184 5.0 12.0 0.00 0.00 0.00 42 1011.8
20260906202105 98 186 5.0 12.0 0.00 0.00 0.00 42 1011.7
20260906202005 97 191 5.0 12.0 0.00 0.00 0.00 43 1011.7
20260906201905 97 192 5.0 10.0 0.00 0.00 0.00 43 1011.7
20260906201805 97 196 4.0 10.0 0.00 0.00 0.00 43 1011.8
20260906201604 96 205 4.0 9.0 0.00 0.00 0.00 43 1011.8
20260906201505 96 213 4.0 9.0 0.00 0.00 0.00 43 1011.8
20260906201404 96 216 4.0 9.0 0.00 0.00 0.00 43 1011.8
20260906201305 96 219 4.0 9.0 0.00 0.00 0.00 43 1011.8
20260906201205 96 216 5.0 10.0 0.00 0.00 0.00 42 1011.8
20260906201105 96 213 4.0 10.0 0.00 0.00 0.00 42 1011.8
20260906201005 96 209 4.0 10.0 0.00 0.00 0.00 42 1011.8
20260906200904 96 210 5.0 10.0 0.00 0.00 0.00 42 1011.8
20260906200604 97 199 6.0 12.0 0.00 0.00 0.00 41 1012.0
20260906200505 97 197 6.0 12.0 0.00 0.00 0.00 41 1011.9
20260906200404 97 196 6.0 12.0 0.00 0.00 0.00 41 1011.9
20260906200305 97 188 6.0 12.0 0.00 0.00 0.00 41 1011.9
20260906200204 97 176 6.0 12.0 0.00 0.00 0.00 41 1011.9
20260906200005 97 150 6.0 12.0 0.00 0.00 0.00 41 1012.0
20260906195905 97 136 6.0 12.0 0.00 0.00 0.00 41 1012.0
20260906195804 97 125 6.0 12.0 0.00 0.00 0.00 42 1011.9
20260906195705 96 116 5.0 12.0 0.00 0.00 0.00 42 1012.0
20260906195605 96 105 5.0 11.0 0.00 0.00 0.00 42 1011.9
20260906195504 96 100 5.0 11.0 0.00 0.00 0.00 42 1012.0
20260906195406 96 101 5.0 11.0 0.00 0.00 0.00 42 1012.0
20260906195306 96 102 5.0 11.0 0.00 0.00 0.00 42 1011.9
20260906195204 96 100 5.0 11.0 0.00 0.00 0.00 41 1011.9
20260906195105 96 104 5.0 11.0 0.00 0.00 0.00 41 1011.9
20260906195005 96 110 5.0 10.0 0.00 0.00 0.00 42 1012.0
20260906194804 96 109 4.0 9.0 0.00 0.00 0.00 42 1012.0
20260906194705 96 108 5.0 9.0 0.00 0.00 0.00 42 1012.0
20260906194604 96 107 5.0 9.0 0.00 0.00 0.00 42 1012.0
20260906194505 97 107 5.0 13.0 0.00 0.00 0.00 41 1012.1
20260906194404 97 106 5.0 13.0 0.00 0.00 0.00 42 1012.0
20260906194305 96 106 5.0 13.0 0.00 0.00 0.00 42 1012.0
20260906194204 96 104 5.0 13.0 0.00 0.00 0.00 42 1012.1
20260906194005 96 102 5.0 13.0 0.00 0.00 0.00 42 1012.1
20260906193905 96 106 5.0 13.0 0.00 0.00 0.00 42 1012.1
20260906193704 96 137 5.0 13.0 0.00 0.00 0.00 42 1012.1
20260906193605 96 157 5.0 13.0 0.00 0.00 0.00 42 1012.2
20260906193504 96 183 5.0 12.0 0.00 0.00 0.00 41 1012.2
20260906193304 96 193 4.0 12.0 0.00 0.00 0.00 42 1012.3
20260906193205 96 198 4.0 12.0 0.00 0.00 0.00 42 1012.3
20260906193105 96 197 4.0 12.0 0.00 0.00 0.00 41 1012.2
20260906193004 96 183 4.0 12.0 0.00 0.00 0.00 41 1012.2
20260906192905 96 166 4.0 12.0 0.00 0.00 0.00 40 1012.2
20260906192805 97 162 4.0 12.0 0.00 0.00 0.00 41 1012.3
20260906192705 97 161 4.0 11.0 0.00 0.00 0.00 41 1012.3
20260906192604 97 163 4.0 11.0 0.00 0.00 0.00 41 1012.3
20260906192505 96 165 4.0 11.0 0.00 0.00 0.00 42 1012.4
20260906192404 96 172 5.0 11.0 0.00 0.00 0.00 43 1012.3
20260906192307 96 172 5.0 11.0 0.00 0.00 0.00 43 1012.3
20260906192205 96 173 6.0 11.0 0.00 0.00 0.00 43 1012.4
20260906192105 96 172 6.0 12.0 0.00 0.00 0.00 42 1012.4
20260906191905 96 175 6.0 12.0 0.00 0.00 0.00 42 1012.4
20260906191804 96 169 6.0 12.0 0.00 0.00 0.00 42 1012.5
20260906191705 96 166 6.0 13.0 0.00 0.00 0.00 41 1012.5
20260906191604 96 168 6.0 13.0 0.00 0.00 0.00 41 1012.5
20260906191505 96 171 6.0 13.0 0.00 0.00 0.00 41 1012.5
20260906191204 96 182 5.0 13.0 0.00 0.00 0.00 42 1012.5
20260906191105 96 198 5.0 13.0 0.00 0.00 0.00 42 1012.5
20260906191004 96 205 4.0 13.0 0.00 0.00 0.00 43 1012.5
20260906190905 95 214 4.0 13.0 0.00 0.00 0.00 43 1012.5
20260906190804 95 228 3.0 13.0 0.00 0.00 0.00 44 1012.4
20260906190705 95 232 3.0 10.0 0.00 0.00 0.00 44 1012.6
20260906190604 95 230 3.0 10.0 0.00 0.00 0.00 43 1012.6
20260906190505 95 233 3.0 10.0 0.00 0.00 0.00 44 1012.6
20260906190405 95 232 3.0 10.0 0.00 0.00 0.00 44 1012.6
20260906190305 95 228 3.0 10.0 0.00 0.00 0.00 44 1012.5
20260906190105 96 232 3.0 10.0 0.00 0.00 0.00 44 1012.5
20260906190005 95 247 3.0 10.0 0.00 0.00 0.00 44 1012.5
20260906185904 95 263 4.0 10.0 0.00 0.00 0.00 44 1012.6
20260906185804 95 266 4.0 10.0 0.00 0.00 0.00 44 1012.6
20260906185604 95 260 4.0 10.0 0.00 0.00 0.00 44 1012.5
20260906185505 95 252 4.0 8.0 0.00 0.00 0.00 44 1012.6
20260906185306 95 239 4.0 8.0 0.00 0.00 0.00 45 1012.6
20260906185204 95 226 5.0 8.0 0.00 0.00 0.00 45 1012.6
20260906185104 94 214 5.0 12.0 0.00 0.00 0.00 46 1012.6
20260906185005 94 208 5.0 12.0 0.00 0.00 0.00 46 1012.7
20260906184905 94 204 5.0 12.0 0.00 0.00 0.00 46 1012.7
20260906184804 94 200 5.0 12.0 0.00 0.00 0.00 45 1012.7
20260906184704 94 199 5.0 12.0 0.00 0.00 0.00 45 1012.7
20260906184504 95 200 5.0 12.0 0.00 0.00 0.00 45 1012.8
20260906184405 95 200 4.0 12.0 0.00 0.00 0.00 44 1012.8
20260906184304 95 200 4.0 12.0 0.00 0.00 0.00 44 1012.8
20260906184204 95 197 4.0 12.0 0.00 0.00 0.00 43 1012.8
20260906184005 95 188 4.0 10.0 0.00 0.00 0.00 44 1012.8
20260906183905 95 185 4.0 10.0 0.00 0.00 0.00 44 1012.8
20260906183805 94 188 4.0 10.0 0.00 0.00 0.00 45 1012.8
20260906183704 94 190 5.0 10.0 0.00 0.00 0.00 45 1012.8
20260906183605 94 190 5.0 11.0 0.00 0.00 0.00 46 1012.9
20260906183504 94 191 6.0 11.0 0.00 0.00 0.00 46 1012.9
20260906183304 94 192 6.0 11.0 0.00 0.00 0.00 46 1012.9
20260906183104 94 199 6.0 12.0 0.00 0.00 0.00 46 1012.9
20260906182804 94 193 6.0 13.0 0.00 0.00 0.00 46 1013.0
20260906182705 94 189 6.0 13.0 0.00 0.00 0.00 46 1013.1
20260906182505 94 183 6.0 13.0 0.00 0.00 0.00 45 1013.0
20260906182306 93 173 6.0 13.0 0.00 0.00 0.00 46 1013.0
20260906182004 93 165 5.0 11.0 0.00 0.00 0.00 46 1013.1
20260906181905 93 163 5.0 11.0 0.00 0.00 0.00 48 1013.1
20260906181804 93 160 5.0 11.0 0.00 0.00 0.00 48 1013.1
20260906181705 92 158 4.0 11.0 0.00 0.00 0.00 48 1013.1
20260906181604 92 160 5.0 10.0 0.00 0.00 0.00 48 1013.2
20260906181504 93 167 4.0 10.0 0.00 0.00 0.00 47 1013.2
20260906181404 93 175 4.0 10.0 0.00 0.00 0.00 48 1013.2
20260906181305 93 186 5.0 10.0 0.00 0.00 0.00 48 1013.2
20260906181204 93 189 5.0 12.0 0.00 0.00 0.00 48 1013.2
20260906181105 93 186 5.0 12.0 0.00 0.00 0.00 48 1013.2
20260906181005 93 188 5.0 12.0 0.00 0.00 0.00 48 1013.2
20260906180904 93 188 5.0 12.0 0.00 0.00 0.00 47 1013.2
20260906180804 93 188 5.0 12.0 0.00 0.00 0.00 47 1013.2
20260906180704 93 186 5.0 12.0 0.00 0.00 0.00 47 1013.2
20260906180604 92 182 5.0 12.0 0.00 0.00 0.00 47 1013.2
20260906180505 92 177 5.0 12.0 0.00 0.00 0.00 48 1013.3
20260906180404 92 175 5.0 12.0 0.00 0.00 0.00 47 1013.3
20260906180305 92 172 4.0 12.0 0.00 0.00 0.00 49 1013.4
20260906180204 92 166 4.0 12.0 0.00 0.00 0.00 49 1013.4
20260906180005 92 156 4.0 11.0 0.00 0.00 0.00 49 1013.4
20260906175904 92 153 4.0 11.0 0.00 0.00 0.00 50 1013.4
20260906175805 92 148 4.0 11.0 0.00 0.00 0.00 50 1013.4
20260906175704 92 144 4.0 8.0 0.00 0.00 0.00 50 1013.5
20260906175605 92 148 4.0 9.0 0.00 0.00 0.00 50 1013.5
20260906175504 92 151 4.0 9.0 0.00 0.00 0.00 50 1013.5
20260906175405 92 158 4.0 9.0 0.00 0.00 0.00 50 1013.5
20260906175306 92 158 5.0 10.0 0.00 0.00 0.00 52 1013.5
20260906175204 92 161 6.0 10.0 0.00 0.00 0.00 51 1013.5
20260906175105 92 167 6.0 10.0 0.00 0.00 0.00 52 1013.6
20260906175004 92 171 6.0 10.0 0.00 0.00 0.00 52 1013.6
20260906174905 92 174 6.0 10.0 0.00 0.00 0.00 51 1013.5
20260906174804 92 177 6.0 10.0 0.00 0.00 0.00 51 1013.6
20260906174705 92 178 6.0 12.0 0.00 0.00 0.00 51 1013.6
20260906174604 92 179 7.0 12.0 0.00 0.00 0.00 51 1013.6
20260906174505 92 173 7.0 15.0 0.00 0.00 0.00 52 1013.7
20260906174404 92 166 6.0 15.0 0.00 0.00 0.00 52 1013.7
20260906174304 92 167 5.0 15.0 0.00 0.00 0.00 52 1013.7
20260906174205 93 167 5.0 15.0 0.00 0.00 0.00 52 1013.7
20260906174104 93 170 5.0 15.0 0.00 0.00 0.00 52 1013.7
20260906173904 94 174 5.0 15.0 0.00 0.00 0.00 51 1013.8
20260906173804 93 179 5.0 15.0 0.00 0.00 0.00 51 1013.8
20260906173604 93 188 4.0 15.0 0.00 0.00 0.00 52 1013.8
20260906173505 92 198 5.0 10.0 0.00 0.00 0.00 49 1013.8
20260906173404 92 198 5.0 10.0 0.00 0.00 0.00 45 1013.7
20260906173305 92 198 5.0 10.0 0.00 0.00 0.00 45 1013.8
20260906173204 93 195 5.0 10.0 0.00 0.00 0.00 45 1013.8
20260906173104 93 192 5.0 10.0 0.00 0.00 0.00 47 1013.7
20260906173004 92 185 6.0 10.0 0.00 0.00 0.00 48 1013.8
20260906172904 93 181 6.0 12.0 0.00 0.00 0.00 48 1013.8
20260906172804 93 179 6.0 12.0 0.00 0.00 0.00 48 1013.8
20260906172704 93 183 6.0 12.0 0.00 0.00 0.00 48 1013.9
20260906172605 93 182 6.0 12.0 0.00 0.00 0.00 48 1013.9
20260906172404 93 187 6.0 12.0 0.00 0.00 0.00 49 1013.9
20260906172204 93 188 6.0 12.0 0.00 0.00 0.00 50 1014.0
20260906172105 93 189 5.0 12.0 0.00 0.00 0.00 50 1014.0
20260906172004 93 196 5.0 12.0 0.00 0.00 0.00 50 1014.0
20260906171804 92 200 4.0 9.0 0.00 0.00 0.00 51 1014.1
20260906171704 93 200 5.0 9.0 0.00 0.00 0.00 50 1014.1
20260906171504 93 194 5.0 10.0 0.00 0.00 0.00 48 1014.2
20260906171404 92 193 5.0 10.0 0.00 0.00 0.00 48 1014.2
20260906171304 92 192 5.0 10.0 0.00 0.00 0.00 48 1014.2
20260906171204 92 196 5.0 10.0 0.00 0.00 0.00 49 1014.2
20260906171005 91 195 5.0 10.0 0.00 0.00 0.00 51 1014.2
20260906170905 91 194 5.0 10.0 0.00 0.00 0.00 52 1014.2
20260906170804 91 196 5.0 10.0 0.00 0.00 0.00 52 1014.2
20260906170705 91 198 5.0 10.0 0.00 0.00 0.00 52 1014.3
20260906170604 90 199 5.0 10.0 0.00 0.00 0.00 54 1014.3
20260906170505 90 202 5.0 10.0 0.00 0.00 0.00 54 1014.3
20260906170304 91 201 5.0 10.0 0.00 0.00 0.00 54 1014.4
20260906170205 91 199 5.0 10.0 0.00 0.00 0.00 54 1014.4
20260906170106 91 198 5.0 9.0 0.00 0.00 0.00 55 1014.4
20260906165904 91 192 5.0 9.0 0.00 0.00 0.00 56 1014.4
20260906165804 91 188 5.0 9.0 0.00 0.00 0.00 56 1014.4
20260906165704 91 183 5.0 9.0 0.00 0.00 0.00 56 1014.4
20260906165604 91 179 5.0 9.0 0.00 0.00 0.00 56 1014.4
20260906165505 91 178 5.0 9.0 0.00 0.00 0.00 55 1014.4
20260906165404 91 177 5.0 9.0 0.00 0.00 0.00 53 1014.4
20260906165306 90 178 5.0 9.0 0.00 0.00 0.00 56 1014.4
20260906165204 90 179 5.0 9.0 0.00 0.00 0.00 56 1014.3
20260906165104 90 183 5.0 9.0 0.00 0.00 0.00 56 1014.3
20260906164905 90 188 5.0 9.0 0.00 0.00 0.00 56 1014.3
20260906164804 90 191 5.0 9.0 0.00 0.00 0.00 56 1014.3
20260906164705 90 192 5.0 9.0 0.00 0.00 0.00 57 1014.4
20260906164505 90 190 5.0 9.0 0.00 0.00 0.00 57 1014.4
20260906164404 90 192 5.0 9.0 0.00 0.00 0.00 57 1014.4
20260906164204 90 191 5.0 9.0 0.00 0.00 0.00 59 1014.4
20260906164104 90 188 5.0 9.0 0.00 0.00 0.00 59 1014.5
20260906164004 90 185 6.0 9.0 0.00 0.00 0.00 61 1014.4
20260906163905 90 191 6.0 9.0 0.00 0.00 0.00 61 1014.4
20260906163804 90 191 6.0 9.0 0.00 0.00 0.00 61 1014.4
20260906163705 90 194 6.0 9.0 0.00 0.00 0.00 61 1014.4
20260906163604 90 201 6.0 9.0 0.00 0.00 0.00 60 1014.5
20260906163505 90 203 6.0 9.0 0.00 0.00 0.00 61 1014.5
20260906163404 90 204 6.0 9.0 0.00 0.00 0.00 61 1014.5
20260906163204 89 204 5.0 9.0 0.00 0.00 0.00 61 1014.5
20260906163104 89 204 5.0 9.0 0.00 0.00 0.00 61 1014.5
20260906163005 89 203 5.0 9.0 0.00 0.00 0.00 61 1014.5
20260906162904 89 202 4.0 9.0 0.00 0.00 0.00 61 1014.5
20260906162704 88 203 5.0 9.0 0.00 0.00 0.00 61 1014.5
20260906162605 88 200 4.0 9.0 0.00 0.00 0.00 62 1014.5
20260906162505 88 196 4.0 8.0 0.00 0.00 0.00 62 1014.5
20260906162404 88 192 5.0 8.0 0.00 0.00 0.00 65 1014.5
20260906162306 87 190 5.0 8.0 0.00 0.00 0.00 65 1014.5
20260906162204 87 190 5.0 8.0 0.00 0.00 0.00 65 1014.5
20260906162104 86 188 5.0 8.0 0.00 0.00 0.00 65 1014.5
20260906162004 86 188 5.0 8.0 0.00 0.00 0.00 66 1014.6
20260906161904 86 187 5.0 8.0 0.00 0.00 0.00 65 1014.5
20260906161805 86 185 5.0 8.0 0.00 0.00 0.00 65 1014.5
20260906161704 86 177 4.0 8.0 0.00 0.00 0.00 66 1014.5
20260906161604 86 176 4.0 8.0 0.00 0.00 0.00 66 1014.5
20260906161504 86 176 4.0 8.0 0.00 0.00 0.00 67 1014.5
20260906161404 86 177 4.0 8.0 0.00 0.00 0.00 67 1014.4
20260906161304 86 181 4.0 8.0 0.00 0.00 0.00 67 1014.4
20260906161204 86 182 4.0 8.0 0.00 0.00 0.00 67 1014.4
20260906161105 86 187 4.0 7.0 0.00 0.00 0.00 67 1014.5
20260906161004 85 191 5.0 8.0 0.00 0.00 0.00 67 1014.4
20260906160904 85 194 4.0 8.0 0.00 0.00 0.00 67 1014.4
20260906160804 85 196 4.0 8.0 0.00 0.00 0.00 68 1014.4
20260906160705 85 199 4.0 8.0 0.00 0.00 0.00 68 1014.4
20260906160604 85 199 4.0 8.0 0.00 0.00 0.00 69 1014.4
20260906160505 84 200 4.0 8.0 0.00 0.00 0.00 68 1014.4
20260906160404 84 200 4.0 8.0 0.00 0.00 0.00 68 1014.4
20260906160304 84 196 4.0 8.0 0.00 0.00 0.00 68 1014.5
20260906160204 84 195 4.0 8.0 0.00 0.00 0.00 68 1014.5
20260906160105 84 191 4.0 8.0 0.00 0.00 0.00 68 1014.5
20260906160004 84 188 4.0 7.0 0.00 0.00 0.00 70 1014.5
20260906155905 84 184 4.0 8.0 0.00 0.00 0.00 70 1014.4
20260906155804 84 181 4.0 8.0 0.00 0.00 0.00 70 1014.5
20260906155704 84 178 4.0 8.0 0.00 0.00 0.00 70 1014.5
20260906155604 84 175 4.0 8.0 0.00 0.00 0.00 70 1014.4
20260906155504 84 174 4.0 8.0 0.00 0.00 0.00 70 1014.4
20260906155405 84 172 4.0 8.0 0.00 0.00 0.00 70 1014.4
20260906155204 84 169 4.0 8.0 0.00 0.00 0.00 70 1014.3
20260906155105 84 169 4.0 8.0 0.00 0.00 0.00 70 1014.3
20260906155004 84 167 3.0 8.0 0.00 0.00 0.00 70 1014.3
20260906154906 84 165 3.0 7.0 0.00 0.00 0.00 70 1014.3
20260906154804 84 165 3.0 7.0 0.00 0.00 0.00 70 1014.3
20260906154704 84 164 3.0 7.0 0.00 0.00 0.00 70 1014.3
20260906154504 84 164 3.0 7.0 0.00 0.00 0.00 70 1014.4
20260906154404 84 165 3.0 7.0 0.00 0.00 0.00 70 1014.4
20260906154207 84 169 4.0 7.0 0.00 0.00 0.00 71 1014.3
20260906154104 83 167 4.0 7.0 0.00 0.00 0.00 72 1014.3
20260906153904 83 165 4.0 7.0 0.00 0.00 0.00 72 1014.3
20260906153804 83 165 4.0 7.0 0.00 0.00 0.00 72 1014.3
20260906153704 83 165 4.0 7.0 0.00 0.00 0.00 72 1014.3
20260906153604 83 162 4.0 7.0 0.00 0.00 0.00 72 1014.3
20260906153504 83 161 4.0 7.0 0.00 0.00 0.00 72 1014.3
20260906153404 83 159 4.0 7.0 0.00 0.00 0.00 72 1014.2
20260906153304 83 153 4.0 9.0 0.00 0.00 0.00 72 1014.3
20260906153204 83 150 4.0 9.0 0.00 0.00 0.00 72 1014.2
20260906153104 83 149 4.0 9.0 0.00 0.00 0.00 72 1014.3
20260906153004 83 148 4.0 9.0 0.00 0.00 0.00 72 1014.3
20260906152905 83 148 4.0 9.0 0.00 0.00 0.00 72 1014.3
20260906152804 83 152 4.0 9.0 0.00 0.00 0.00 72 1014.3
20260906152704 83 156 4.0 9.0 0.00 0.00 0.00 72 1014.3
20260906152504 83 159 5.0 9.0 0.00 0.00 0.00 72 1014.2
20260906152405 83 161 5.0 9.0 0.00 0.00 0.00 72 1014.2
20260906152306 83 164 5.0 8.0 0.00 0.00 0.00 72 1014.2
20260906152204 83 164 4.0 8.0 0.00 0.00 0.00 72 1014.3
20260906152104 83 165 5.0 8.0 0.00 0.00 0.00 72 1014.2
20260906152004 83 165 5.0 8.0 0.00 0.00 0.00 73 1014.2
20260906151904 83 165 5.0 8.0 0.00 0.00 0.00 73 1014.2
20260906151804 83 162 5.0 8.0 0.00 0.00 0.00 73 1014.2
20260906151705 83 159 4.0 8.0 0.00 0.00 0.00 73 1014.2
20260906151604 83 156 4.0 8.0 0.00 0.00 0.00 73 1014.2
20260906151504 83 154 4.0 8.0 0.00 0.00 0.00 73 1014.1
20260906151406 83 150 4.0 8.0 0.00 0.00 0.00 72 1014.1
20260906151304 83 149 4.0 8.0 0.00 0.00 0.00 72 1014.1
20260906151205 83 146 4.0 8.0 0.00 0.00 0.00 72 1014.1
20260906151104 83 146 4.0 8.0 0.00 0.00 0.00 72 1014.2
20260906151005 83 142 4.0 9.0 0.00 0.00 0.00 72 1014.2
20260906150804 83 135 4.0 9.0 0.00 0.00 0.00 72 1014.2
20260906150704 83 134 5.0 9.0 0.00 0.00 0.00 72 1014.1
20260906150605 83 133 5.0 9.0 0.00 0.00 0.00 72 1014.1
20260906150504 83 132 5.0 9.0 0.00 0.00 0.00 72 1014.1
20260906150304 83 132 5.0 9.0 0.00 0.00 0.00 72 1014.1
20260906150204 83 134 5.0 9.0 0.00 0.00 0.00 71 1014.1
20260906150004 83 139 5.0 8.0 0.00 0.00 0.00 71 1014.0
20260906145905 84 139 4.0 8.0 0.00 0.00 0.00 71 1014.0
20260906145804 84 143 4.0 8.0 0.00 0.00 0.00 71 1014.0
20260906145704 84 145 4.0 8.0 0.00 0.00 0.00 71 1014.0
20260906145605 84 146 4.0 8.0 0.00 0.00 0.00 71 1014.0
20260906145504 84 148 4.0 8.0 0.00 0.00 0.00 71 1014.0
20260906145404 84 149 4.0 8.0 0.00 0.00 0.00 72 1014.0
20260906145306 84 152 3.0 8.0 0.00 0.00 0.00 71 1014.1
20260906145204 84 152 3.0 8.0 0.00 0.00 0.00 71 1013.9
20260906145104 84 153 3.0 8.0 0.00 0.00 0.00 71 1013.9
20260906145005 84 151 3.0 7.0 0.00 0.00 0.00 71 1014.0
20260906144904 84 154 2.0 7.0 0.00 0.00 0.00 71 1014.0
20260906144804 84 151 2.0 7.0 0.00 0.00 0.00 71 1014.0
20260906144704 84 148 2.0 4.0 0.00 0.00 0.00 71 1014.0
20260906144605 84 148 1.0 4.0 0.00 0.00 0.00 71 1013.8
20260906144504 84 146 1.0 4.0 0.00 0.00 0.00 72 1013.8
20260906144406 84 139 1.0 4.0 0.00 0.00 0.00 72 1013.8
20260906144304 84 131 1.0 3.0 0.00 0.00 0.00 71 1013.8
20260906144205 84 128 1.0 3.0 0.00 0.00 0.00 71 1013.9
20260906144104 84 122 2.0 3.0 0.00 0.00 0.00 71 1013.9
20260906143904 84 117 1.0 3.0 0.00 0.00 0.00 71 1013.8
20260906143604 84 124 2.0 3.0 0.00 0.00 0.00 71 1013.8
20260906143504 84 124 1.0 3.0 0.00 0.00 0.00 71 1013.9
20260906143405 84 127 1.0 3.0 0.00 0.00 0.00 71 1013.8
20260906143304 84 127 1.0 3.0 0.00 0.00 0.00 72 1013.8
20260906143205 84 135 1.0 3.0 0.00 0.00 0.00 71 1013.9
20260906143104 84 145 1.0 3.0 0.00 0.00 0.00 71 1013.8
20260906143005 84 149 1.0 3.0 0.00 0.00 0.00 71 1013.8
20260906142904 84 151 2.0 3.0 0.00 0.00 0.00 71 1013.8
20260906142805 84 154 2.0 3.0 0.00 0.00 0.00 71 1013.8
20260906142704 84 154 2.0 3.0 0.00 0.00 0.00 71 1013.8
20260906142505 84 149 2.0 3.0 0.00 0.00 0.00 71 1013.8
20260906142404 84 152 2.0 3.0 0.00 0.00 0.00 69 1013.9
20260906142306 84 157 2.0 3.0 0.00 0.00 0.00 69 1013.8
20260906142205 84 157 2.0 3.0 0.00 0.00 0.00 69 1013.8
20260906142104 84 154 1.0 3.0 0.00 0.00 0.00 69 1013.8
20260906142004 84 154 1.0 3.0 0.00 0.00 0.00 69 1013.9
20260906141904 84 152 1.0 3.0 0.00 0.00 0.00 69 1013.9
20260906141804 84 150 1.0 3.0 0.00 0.00 0.00 70 1013.9
20260906141704 84 152 1.0 3.0 0.00 0.00 0.00 70 1013.9
20260906141504 84 169 1.0 2.0 0.00 0.00 0.00 70 1013.9
20260906141405 84 173 1.0 2.0 0.00 0.00 0.00 70 1013.9
20260906141305 84 173 1.0 2.0 0.00 0.00 0.00 70 1013.8
20260906141204 84 164 1.0 3.0 0.00 0.00 0.00 70 1013.9
20260906141104 84 159 1.0 3.0 0.00 0.00 0.00 71 1013.8
20260906141004 84 153 1.0 3.0 0.00 0.00 0.00 70 1013.8
20260906140704 84 134 1.0 3.0 0.00 0.00 0.00 69 1013.8
20260906140604 85 125 1.0 3.0 0.00 0.00 0.00 69 1013.7
20260906140505 85 117 1.0 3.0 0.00 0.00 0.00 68 1013.7
20260906140404 85 109 1.0 3.0 0.00 0.00 0.00 69 1013.7
20260906140303 85 105 1.0 3.0 0.00 0.00 0.00 70 1013.7
20260906140204 85 104 2.0 3.0 0.00 0.00 0.00 71 1013.7
20260906140103 84 102 2.0 3.0 0.00 0.00 0.00 71 1013.7
20260906140004 84 102 2.0 3.0 0.00 0.00 0.00 72 1013.7
20260906135903 84 101 2.0 3.0 0.00 0.00 0.00 73 1013.6
20260906135804 83 103 2.0 3.0 0.00 0.00 0.00 74 1013.6
20260906135704 83 104 2.0 3.0 0.00 0.00 0.00 73 1013.6
20260906135605 83 106 1.0 3.0 0.00 0.00 0.00 74 1013.7
20260906135404 83 109 1.0 3.0 0.00 0.00 0.00 74 1013.6
20260906135306 83 113 1.0 3.0 0.00 0.00 0.00 74 1013.6
20260906135204 83 113 1.0 3.0 0.00 0.00 0.00 74 1013.6
20260906135104 83 118 1.0 3.0 0.00 0.00 0.00 74 1013.6
20260906135004 82 120 1.0 3.0 0.00 0.00 0.00 74 1013.6
20260906134904 82 116 1.0 3.0 0.00 0.00 0.00 74 1013.6
20260906134804 82 109 1.0 4.0 0.00 0.00 0.00 75 1013.6
20260906134704 82 113 1.0 4.0 0.00 0.00 0.00 75 1013.6
20260906134504 82 126 2.0 4.0 0.00 0.00 0.00 75 1013.5
20260906134304 82 127 2.0 4.0 0.00 0.00 0.00 77 1013.6
20260906134205 82 130 2.0 4.0 0.00 0.00 0.00 76 1013.5
20260906134104 82 128 2.0 4.0 0.00 0.00 0.00 76 1013.5
20260906134004 82 125 2.0 4.0 0.00 0.00 0.00 76 1013.5
20260906133904 82 126 2.0 4.0 0.00 0.00 0.00 76 1013.5
20260906133804 82 128 2.0 4.0 0.00 0.00 0.00 77 1013.5
20260906133704 82 125 3.0 4.0 0.00 0.00 0.00 77 1013.6
20260906133605 82 121 3.0 5.0 0.00 0.00 0.00 77 1013.5
20260906133404 82 112 3.0 5.0 0.00 0.00 0.00 78 1013.6
20260906133304 81 110 3.0 5.0 0.00 0.00 0.00 79 1013.5
20260906133204 81 107 3.0 5.0 0.00 0.00 0.00 79 1013.5
20260906133104 81 107 2.0 5.0 0.00 0.00 0.00 79 1013.5
20260906133004 80 108 2.0 5.0 0.00 0.00 0.00 80 1013.4
20260906132904 80 108 2.0 5.0 0.00 0.00 0.00 81 1013.4
20260906132804 80 110 2.0 5.0 0.00 0.00 0.00 81 1013.4
20260906132703 80 110 2.0 5.0 0.00 0.00 0.00 81 1013.4
20260906132604 80 111 2.0 4.0 0.00 0.00 0.00 81 1013.4
20260906132504 80 115 2.0 4.0 0.00 0.00 0.00 81 1013.3
20260906132404 80 121 2.0 4.0 0.00 0.00 0.00 81 1013.3
20260906132204 79 127 2.0 4.0 0.00 0.00 0.00 82 1013.3
20260906132104 79 127 2.0 4.0 0.00 0.00 0.00 82 1013.3
20260906131904 79 126 2.0 4.0 0.00 0.00 0.00 82 1013.3
20260906131804 79 126 2.0 4.0 0.00 0.00 0.00 82 1013.3
20260906131704 79 125 3.0 4.0 0.00 0.00 0.00 82 1013.3
20260906131605 79 126 3.0 4.0 0.00 0.00 0.00 82 1013.3
20260906131204 79 126 2.0 4.0 0.00 0.00 0.00 83 1013.4
20260906131104 79 127 1.0 4.0 0.00 0.00 0.00 83 1013.3
20260906130904 78 129 1.0 4.0 0.00 0.00 0.00 83 1013.3
20260906130804 78 129 1.0 4.0 0.00 0.00 0.00 83 1013.3
20260906130704 78 135 0.0 4.0 0.00 0.00 0.00 83 1013.3
20260906130604 78 144 0.0 3.0 0.00 0.00 0.00 83 1013.3
20260906130504 78 0 0.0 0.0 0.00 0.00 0.00 84 1013.3
20260906130304 77 0 0.0 0.0 0.00 0.00 0.00 84 1013.2
20260906130204 77 0 0.0 0.0 0.00 0.00 0.00 84 1013.2
20260906130104 77 0 0.0 0.0 0.00 0.00 0.00 84 1013.2
20260906130004 77 0 0.0 0.0 0.00 0.00 0.00 84 1013.2
20260906125903 77 0 0.0 0.0 0.00 0.00 0.00 84 1013.1
20260906125704 77 0 0.0 0.0 0.00 0.00 0.00 84 1013.1
20260906125604 77 0 0.0 0.0 0.00 0.00 0.00 84 1013.1
20260906125504 77 0 0.0 0.0 0.00 0.00 0.00 84 1013.1
20260906125404 77 0 0.0 0.0 0.00 0.00 0.00 84 1013.1
20260906125306 77 0 0.0 0.0 0.00 0.00 0.00 84 1013.1
20260906125204 77 0 0.0 0.0 0.00 0.00 0.00 84 1013.1
20260906125104 77 0 0.0 0.0 0.00 0.00 0.00 84 1013.1
20260906124904 76 0 0.0 0.0 0.00 0.00 0.00 84 1013.0
20260906124804 76 0 0.0 0.0 0.00 0.00 0.00 84 1012.9
20260906124704 76 0 0.0 0.0 0.00 0.00 0.00 84 1012.9
20260906124604 76 0 0.0 0.0 0.00 0.00 0.00 84 1012.9
20260906124504 76 0 0.0 0.0 0.00 0.00 0.00 84 1012.8
20260906124404 76 0 0.0 0.0 0.00 0.00 0.00 84 1012.9
20260906124303 76 0 0.0 0.0 0.00 0.00 0.00 84 1012.8
20260906124204 76 0 0.0 0.0 0.00 0.00 0.00 84 1012.8
20260906124104 76 0 0.0 0.0 0.00 0.00 0.00 84 1012.7
20260906124004 76 0 0.0 0.0 0.00 0.00 0.00 84 1012.7
20260906123903 76 0 0.0 0.0 0.00 0.00 0.00 84 1012.7
20260906123804 76 0 0.0 0.0 0.00 0.00 0.00 84 1012.7
20260906123704 76 0 0.0 0.0 0.00 0.00 0.00 84 1012.8
20260906123504 76 0 0.0 0.0 0.00 0.00 0.00 84 1012.7
20260906123404 76 0 0.0 0.0 0.00 0.00 0.00 84 1012.7
20260906123304 76 0 0.0 0.0 0.00 0.00 0.00 84 1012.6
20260906123204 76 0 0.0 0.0 0.00 0.00 0.00 84 1012.6
20260906123004 76 0 0.0 0.0 0.00 0.00 0.00 84 1012.7
20260906122904 76 0 0.0 0.0 0.00 0.00 0.00 84 1012.7
20260906122804 76 0 0.0 0.0 0.00 0.00 0.00 84 1012.7
20260906122704 76 0 0.0 0.0 0.00 0.00 0.00 84 1012.7
20260906122604 76 0 0.0 0.0 0.00 0.00 0.00 84 1012.7
20260906122504 76 0 0.0 0.0 0.00 0.00 0.00 84 1012.7
20260906122404 76 0 0.0 0.0 0.00 0.00 0.00 84 1012.6
20260906122306 76 0 0.0 0.0 0.00 0.00 0.00 84 1012.6
20260906122204 76 0 0.0 0.0 0.00 0.00 0.00 84 1012.6
20260906122005 76 0 0.0 0.0 0.00 0.00 0.00 84 1012.6
20260906121904 76 0 0.0 0.0 0.00 0.00 0.00 84 1012.5
20260906121805 76 0 0.0 0.0 0.00 0.00 0.00 84 1012.5
20260906121704 76 0 0.0 0.0 0.00 0.00 0.00 84 1012.5
20260906121604 76 0 0.0 0.0 0.00 0.00 0.00 84 1012.5
20260906121505 76 0 0.0 0.0 0.00 0.00 0.00 84 1012.6
20260906121404 76 0 0.0 0.0 0.00 0.00 0.00 84 1012.6
20260906121303 76 0 0.0 0.0 0.00 0.00 0.00 84 1012.5
20260906121204 76 0 0.0 0.0 0.00 0.00 0.00 84 1012.5
20260906121103 76 0 0.0 0.0 0.00 0.00 0.00 84 1012.5
20260906121004 76 0 0.0 0.0 0.00 0.00 0.00 84 1012.4
20260906120804 76 0 0.0 0.0 0.00 0.00 0.00 84 1012.4
20260906120704 76 0 0.0 0.0 0.00 0.00 0.00 84 1012.4
20260906120603 76 0 0.0 0.0 0.00 0.00 0.00 84 1012.4
20260906120504 76 0 0.0 0.0 0.00 0.00 0.00 84 1012.4
20260906120404 76 0 0.0 0.0 0.00 0.00 0.00 84 1012.4
20260906120304 76 0 0.0 0.0 0.00 0.00 0.00 84 1012.4
20260906120204 76 0 0.0 0.0 0.00 0.00 0.00 84 1012.4
20260906120104 76 0 0.0 0.0 0.00 0.00 0.00 84 1012.4
20260906120004 76 0 0.0 0.0 0.00 0.00 0.00 83 1012.4
20260906115904 76 0 0.0 0.0 0.00 0.00 0.00 83 1012.4
20260906115804 76 0 0.0 0.0 0.00 0.00 0.00 83 1012.3
20260906115604 76 0 0.0 0.0 0.00 0.00 0.00 83 1012.4
20260906115404 76 0 0.0 0.0 0.00 0.00 0.00 83 1012.3
20260906115306 76 0 0.0 0.0 0.00 0.00 0.00 83 1012.4
20260906115204 76 0 0.0 0.0 0.00 0.00 0.00 83 1012.4
20260906115104 76 0 0.0 0.0 0.00 0.00 0.00 83 1012.4
20260906115004 76 0 0.0 0.0 0.00 0.00 0.00 83 1012.4
20260906114903 76 0 0.0 0.0 0.00 0.00 0.00 83 1012.4
20260906114804 76 0 0.0 0.0 0.00 0.00 0.00 83 1012.4
20260906114703 76 0 0.0 0.0 0.00 0.00 0.00 83 1012.3
20260906114604 76 0 0.0 0.0 0.00 0.00 0.00 83 1012.3
20260906114504 76 0 0.0 0.0 0.00 0.00 0.00 83 1012.3
20260906114404 76 0 0.0 0.0 0.00 0.00 0.00 83 1012.3
20260906114304 76 0 0.0 0.0 0.00 0.00 0.00 83 1012.3
20260906114203 76 0 0.0 0.0 0.00 0.00 0.00 83 1012.3
20260906114105 76 0 0.0 0.0 0.00 0.00 0.00 83 1012.2
20260906114004 77 0 0.0 0.0 0.00 0.00 0.00 83 1012.2
20260906113905 77 0 0.0 0.0 0.00 0.00 0.00 83 1012.1
20260906113803 77 0 0.0 0.0 0.00 0.00 0.00 83 1012.1
20260906113704 77 0 0.0 0.0 0.00 0.00 0.00 83 1012.2
20260906113604 77 0 0.0 0.0 0.00 0.00 0.00 83 1012.1
20260906113504 77 0 0.0 0.0 0.00 0.00 0.00 83 1012.1
20260906113303 77 0 0.0 0.0 0.00 0.00 0.00 82 1012.0
20260906113003 77 0 0.0 0.0 0.00 0.00 0.00 82 1011.9
20260906112904 77 0 0.0 0.0 0.00 0.00 0.00 82 1011.9
20260906112803 77 0 0.0 0.0 0.00 0.00 0.00 82 1011.9
20260906112704 77 0 0.0 0.0 0.00 0.00 0.00 82 1011.9
20260906112505 77 0 0.0 0.0 0.00 0.00 0.00 82 1011.8
20260906112404 77 0 0.0 0.0 0.00 0.00 0.00 82 1011.8
20260906112306 77 0 0.0 0.0 0.00 0.00 0.00 82 1011.8
20260906112204 77 0 0.0 0.0 0.00 0.00 0.00 82 1011.9
20260906112004 77 0 0.0 0.0 0.00 0.00 0.00 82 1011.8
20260906111904 77 0 0.0 0.0 0.00 0.00 0.00 82 1011.8
20260906111704 77 0 0.0 0.0 0.00 0.00 0.00 83 1011.8
20260906111603 77 0 0.0 0.0 0.00 0.00 0.00 83 1011.8
20260906111506 77 0 0.0 0.0 0.00 0.00 0.00 83 1011.7
20260906111404 77 0 0.0 0.0 0.00 0.00 0.00 83 1011.8
20260906111304 77 0 0.0 0.0 0.00 0.00 0.00 83 1011.8
20260906111204 77 0 0.0 0.0 0.00 0.00 0.00 83 1011.8
20260906111003 77 0 0.0 0.0 0.00 0.00 0.00 83 1011.8
20260906110904 77 0 0.0 0.0 0.00 0.00 0.00 83 1011.8
20260906110803 77 0 0.0 0.0 0.00 0.00 0.00 83 1011.7
20260906110704 77 0 0.0 0.0 0.00 0.00 0.00 83 1011.7
20260906110404 77 0 0.0 0.0 0.00 0.00 0.00 83 1011.7
20260906110304 77 0 0.0 0.0 0.00 0.00 0.00 83 1011.7
20260906110204 77 0 0.0 0.0 0.00 0.00 0.00 83 1011.7
20260906110104 77 0 0.0 0.0 0.00 0.00 0.00 83 1011.7
20260906105904 77 0 0.0 0.0 0.00 0.00 0.00 83 1011.7
20260906105705 76 0 0.0 0.0 0.00 0.00 0.00 83 1011.7
20260906105604 77 0 0.0 0.0 0.00 0.00 0.00 82 1011.7
20260906105505 77 0 0.0 0.0 0.00 0.00 0.00 82 1011.6
20260906105104 77 0 0.0 0.0 0.00 0.00 0.00 82 1011.6
20260906105003 77 0 0.0 0.0 0.00 0.00 0.00 82 1011.5
20260906104904 77 0 0.0 0.0 0.00 0.00 0.00 83 1011.6
20260906104803 77 0 0.0 0.0 0.00 0.00 0.00 83 1011.6
20260906104704 77 0 0.0 0.0 0.00 0.00 0.00 83 1011.5
20260906104604 76 0 0.0 0.0 0.00 0.00 0.00 83 1011.5
20260906104503 76 0 0.0 0.0 0.00 0.00 0.00 82 1011.5
20260906104404 76 0 0.0 0.0 0.00 0.00 0.00 82 1011.5
20260906104303 76 0 0.0 0.0 0.00 0.00 0.00 82 1011.5
20260906104204 76 0 0.0 0.0 0.00 0.00 0.00 82 1011.5
20260906104103 77 0 0.0 0.0 0.00 0.00 0.00 82 1011.5
20260906104004 77 0 0.0 0.0 0.00 0.00 0.00 82 1011.5
20260906103903 77 0 0.0 0.0 0.00 0.00 0.00 82 1011.5
20260906103804 77 0 0.0 0.0 0.00 0.00 0.00 82 1011.5
20260906103705 77 0 0.0 0.0 0.00 0.00 0.00 82 1011.5
20260906103604 77 0 0.0 0.0 0.00 0.00 0.00 82 1011.4
20260906103504 77 0 0.0 0.0 0.00 0.00 0.00 82 1011.4
20260906103304 77 0 0.0 0.0 0.00 0.00 0.00 82 1011.5
20260906103203 77 0 0.0 0.0 0.00 0.00 0.00 82 1011.4
20260906103004 77 0 0.0 0.0 0.00 0.00 0.00 81 1011.4
20260906102904 77 0 0.0 0.0 0.00 0.00 0.00 81 1011.5
20260906102803 77 0 0.0 0.0 0.00 0.00 0.00 82 1011.5
20260906102603 77 0 0.0 0.0 0.00 0.00 0.00 82 1011.5
20260906102504 77 0 0.0 0.0 0.00 0.00 0.00 82 1011.5
20260906102306 77 0 0.0 0.0 0.00 0.00 0.00 82 1011.6
20260906102204 77 0 0.0 0.0 0.00 0.00 0.00 82 1011.6
20260906102103 77 0 0.0 0.0 0.00 0.00 0.00 81 1011.6
20260906102004 77 0 0.0 0.0 0.00 0.00 0.00 81 1011.6
20260906101903 77 0 0.0 0.0 0.00 0.00 0.00 81 1011.6
20260906101804 77 0 0.0 0.0 0.00 0.00 0.00 81 1011.6
20260906101605 77 0 0.0 0.0 0.00 0.00 0.00 82 1011.6
20260906101503 77 0 0.0 0.0 0.00 0.00 0.00 82 1011.6
20260906101404 77 0 0.0 0.0 0.00 0.00 0.00 82 1011.6
20260906101204 77 0 0.0 0.0 0.00 0.00 0.00 81 1011.6
20260906101103 77 0 0.0 0.0 0.00 0.00 0.00 82 1011.6
20260906101004 77 0 0.0 0.0 0.00 0.00 0.00 81 1011.5
20260906100904 77 0 0.0 0.0 0.00 0.00 0.00 81 1011.5
20260906100804 77 0 0.0 0.0 0.00 0.00 0.00 82 1011.6
20260906100704 77 0 0.0 0.0 0.00 0.00 0.00 81 1011.5
20260906100604 77 0 0.0 0.0 0.00 0.00 0.00 81 1011.5
20260906100503 77 0 0.0 0.0 0.00 0.00 0.00 81 1011.5
20260906100304 78 0 0.0 0.0 0.00 0.00 0.00 81 1011.5
20260906100204 78 0 0.0 0.0 0.00 0.00 0.00 81 1011.5
20260906100104 78 0 0.0 0.0 0.00 0.00 0.00 81 1011.5
20260906100004 78 0 0.0 0.0 0.00 0.00 0.00 81 1011.5
20260906095803 78 0 0.0 0.0 0.00 0.00 0.00 81 1011.5
20260906095704 78 0 0.0 0.0 0.00 0.00 0.00 81 1011.5
20260906095603 78 0 0.0 0.0 0.00 0.00 0.00 81 1011.5
20260906095504 78 0 0.0 0.0 0.00 0.00 0.00 81 1011.5
20260906095403 78 0 0.0 0.0 0.00 0.00 0.00 81 1011.5
20260906095306 78 0 0.0 0.0 0.00 0.00 0.00 81 1011.5
20260906095203 78 0 0.0 0.0 0.00 0.00 0.00 81 1011.5
20260906095104 78 0 0.0 0.0 0.00 0.00 0.00 81 1011.6
20260906095003 78 0 0.0 0.0 0.00 0.00 0.00 81 1011.5
20260906094904 78 0 0.0 0.0 0.00 0.00 0.00 81 1011.5
20260906094804 78 0 0.0 0.0 0.00 0.00 0.00 81 1011.5
20260906094703 78 0 0.0 0.0 0.00 0.00 0.00 81 1011.5
20260906094604 78 0 0.0 0.0 0.00 0.00 0.00 81 1011.6
20260906094504 78 0 0.0 0.0 0.00 0.00 0.00 81 1011.6
20260906094403 78 0 0.0 0.0 0.00 0.00 0.00 81 1011.6
20260906094304 78 0 0.0 0.0 0.00 0.00 0.00 81 1011.6
20260906094203 78 0 0.0 0.0 0.00 0.00 0.00 81 1011.6
20260906094104 78 0 0.0 0.0 0.00 0.00 0.00 81 1011.6
20260906093904 78 0 0.0 0.0 0.00 0.00 0.00 81 1011.5
20260906093804 78 0 0.0 0.0 0.00 0.00 0.00 81 1011.5
20260906093704 78 0 0.0 0.0 0.00 0.00 0.00 80 1011.5
20260906093604 78 0 0.0 0.0 0.00 0.00 0.00 80 1011.5
20260906093504 78 0 0.0 0.0 0.00 0.00 0.00 81 1011.5
20260906093403 78 0 0.0 0.0 0.00 0.00 0.00 80 1011.5
20260906093303 78 0 0.0 0.0 0.00 0.00 0.00 80 1011.4
20260906093204 78 0 0.0 0.0 0.00 0.00 0.00 80 1011.4
20260906093103 78 0 0.0 0.0 0.00 0.00 0.00 80 1011.4
20260906093004 78 0 0.0 0.0 0.00 0.00 0.00 80 1011.4
20260906092903 78 0 0.0 0.0 0.00 0.00 0.00 80 1011.5
20260906092804 78 0 0.0 0.0 0.00 0.00 0.00 80 1011.5
20260906092703 78 0 0.0 0.0 0.00 0.00 0.00 80 1011.4
20260906092603 78 0 0.0 0.0 0.00 0.00 0.00 80 1011.4
20260906092403 78 0 0.0 0.0 0.00 0.00 0.00 80 1011.4
20260906092306 78 0 0.0 0.0 0.00 0.00 0.00 80 1011.4
20260906092203 78 0 0.0 0.0 0.00 0.00 0.00 80 1011.4
20260906092004 78 0 0.0 0.0 0.00 0.00 0.00 80 1011.4
20260906091904 78 0 0.0 0.0 0.00 0.00 0.00 80 1011.3
20260906091803 78 0 0.0 0.0 0.00 0.00 0.00 80 1011.4
20260906091704 78 0 0.0 0.0 0.00 0.00 0.00 80 1011.3
20260906091603 78 0 0.0 0.0 0.00 0.00 0.00 79 1011.3
20260906091503 79 0 0.0 0.0 0.00 0.00 0.00 79 1011.3
20260906091404 78 0 0.0 0.0 0.00 0.00 0.00 80 1011.3
20260906091303 79 0 0.0 0.0 0.00 0.00 0.00 79 1011.3
20260906091204 78 0 0.0 0.0 0.00 0.00 0.00 79 1011.3
20260906091103 79 0 0.0 0.0 0.00 0.00 0.00 79 1011.3
20260906091004 79 0 0.0 0.0 0.00 0.00 0.00 79 1011.3
20260906090803 79 0 0.0 0.0 0.00 0.00 0.00 79 1011.2
20260906090704 79 0 0.0 0.0 0.00 0.00 0.00 79 1011.3
20260906090603 79 0 0.0 0.0 0.00 0.00 0.00 79 1011.2
20260906090304 79 0 0.0 0.0 0.00 0.00 0.00 79 1011.2
20260906090103 79 0 0.0 0.0 0.00 0.00 0.00 79 1011.1
20260906090004 79 0 0.0 0.0 0.00 0.00 0.00 79 1011.2
20260906085903 79 0 0.0 0.0 0.00 0.00 0.00 79 1011.2
20260906085804 79 0 0.0 0.0 0.00 0.00 0.00 79 1011.2
20260906085703 79 0 0.0 0.0 0.00 0.00 0.00 79 1011.2
20260906085604 79 0 0.0 0.0 0.00 0.00 0.00 79 1011.2
20260906085503 79 0 0.0 0.0 0.00 0.00 0.00 79 1011.2
20260906085404 79 0 0.0 0.0 0.00 0.00 0.00 79 1011.2
20260906085306 79 0 0.0 0.0 0.00 0.00 0.00 79 1011.2
20260906085204 79 0 0.0 0.0 0.00 0.00 0.00 79 1011.2
20260906085104 79 0 0.0 0.0 0.00 0.00 0.00 79 1011.2
20260906085004 79 0 0.0 0.0 0.00 0.00 0.00 79 1011.2
20260906084903 79 0 0.0 0.0 0.00 0.00 0.00 79 1011.2
20260906084803 79 0 0.0 0.0 0.00 0.00 0.00 79 1011.3
20260906084704 79 0 0.0 0.0 0.00 0.00 0.00 79 1011.2
20260906084603 79 0 0.0 0.0 0.00 0.00 0.00 79 1011.2
20260906084504 79 0 0.0 0.0 0.00 0.00 0.00 79 1011.2
20260906084403 79 0 0.0 0.0 0.00 0.00 0.00 79 1011.2
20260906084304 79 0 0.0 0.0 0.00 0.00 0.00 79 1011.2
20260906084203 79 0 0.0 0.0 0.00 0.00 0.00 79 1011.2
20260906084104 79 0 0.0 0.0 0.00 0.00 0.00 79 1011.2
20260906084003 79 0 0.0 0.0 0.00 0.00 0.00 79 1011.2
20260906083804 79 0 0.0 0.0 0.00 0.00 0.00 79 1011.2
20260906083703 79 0 0.0 0.0 0.00 0.00 0.00 79 1011.3
20260906083603 79 0 0.0 0.0 0.00 0.00 0.00 79 1011.3
20260906083504 79 0 0.0 0.0 0.00 0.00 0.00 79 1011.3
20260906083404 79 0 0.0 0.0 0.00 0.00 0.00 79 1011.2
20260906083303 79 0 0.0 0.0 0.00 0.00 0.00 79 1011.3
20260906083203 79 0 0.0 0.0 0.00 0.00 0.00 78 1011.3
20260906083104 79 0 0.0 0.0 0.00 0.00 0.00 79 1011.3
20260906082803 79 0 0.0 0.0 0.00 0.00 0.00 79 1011.4
20260906082704 79 0 0.0 0.0 0.00 0.00 0.00 79 1011.4
20260906082603 79 0 0.0 0.0 0.00 0.00 0.00 79 1011.4
20260906082504 79 0 0.0 0.0 0.00 0.00 0.00 79 1011.4
20260906082403 79 0 0.0 0.0 0.00 0.00 0.00 78 1011.4
20260906082306 79 0 0.0 0.0 0.00 0.00 0.00 78 1011.4
20260906082203 79 0 0.0 0.0 0.00 0.00 0.00 79 1011.4
20260906082104 79 0 0.0 0.0 0.00 0.00 0.00 78 1011.4
20260906082003 79 0 0.0 0.0 0.00 0.00 0.00 78 1011.4
20260906081904 79 0 0.0 0.0 0.00 0.00 0.00 78 1011.4
20260906081803 79 0 0.0 0.0 0.00 0.00 0.00 78 1011.5
20260906081704 79 0 0.0 0.0 0.00 0.00 0.00 78 1011.6
20260906081504 79 0 0.0 0.0 0.00 0.00 0.00 78 1011.6
20260906081404 79 0 0.0 0.0 0.00 0.00 0.00 78 1011.6
20260906081304 79 0 0.0 0.0 0.00 0.00 0.00 78 1011.6
20260906081204 79 0 0.0 0.0 0.00 0.00 0.00 78 1011.6
20260906081003 79 0 0.0 0.0 0.00 0.00 0.00 78 1011.5
20260906080803 79 0 0.0 0.0 0.00 0.00 0.00 78 1011.5
20260906080704 79 0 0.0 0.0 0.00 0.00 0.00 78 1011.5
20260906080603 79 0 0.0 0.0 0.00 0.00 0.00 78 1011.5
20260906080505 79 0 0.0 0.0 0.00 0.00 0.00 78 1011.5
20260906080403 79 0 0.0 0.0 0.00 0.00 0.00 78 1011.6
20260906080304 79 0 0.0 0.0 0.00 0.00 0.00 78 1011.6
20260906080203 79 0 0.0 0.0 0.00 0.00 0.00 78 1011.6
20260906080104 79 0 0.0 0.0 0.00 0.00 0.00 78 1011.6
20260906080004 79 0 0.0 0.0 0.00 0.00 0.00 78 1011.6
20260906075903 79 0 0.0 0.0 0.00 0.00 0.00 78 1011.6
20260906075804 79 0 0.0 0.0 0.00 0.00 0.00 78 1011.6
20260906075703 79 0 0.0 0.0 0.00 0.00 0.00 78 1011.6
20260906075605 79 0 0.0 0.0 0.00 0.00 0.00 77 1011.6
20260906075503 79 0 0.0 0.0 0.00 0.00 0.00 77 1011.6
20260906075404 79 0 0.0 0.0 0.00 0.00 0.00 77 1011.7
20260906075306 79 0 0.0 0.0 0.00 0.00 0.00 77 1011.6
20260906075203 79 0 0.0 0.0 0.00 0.00 0.00 77 1011.7
20260906075003 79 0 0.0 0.0 0.00 0.00 0.00 77 1011.7
20260906074904 79 0 0.0 0.0 0.00 0.00 0.00 77 1011.7
20260906074803 80 0 0.0 0.0 0.00 0.00 0.00 77 1011.7
20260906074404 80 150 1.0 4.0 0.00 0.00 0.00 77 1011.8
20260906074204 80 150 1.0 4.0 0.00 0.00 0.00 77 1011.7
20260906074103 80 151 1.0 4.0 0.00 0.00 0.00 77 1011.8
20260906074003 80 149 2.0 4.0 0.00 0.00 0.00 77 1011.8
20260906073904 80 150 2.0 4.0 0.00 0.00 0.00 77 1011.8
20260906073803 80 150 2.0 4.0 0.00 0.00 0.00 77 1011.8
20260906073603 80 149 2.0 3.0 0.00 0.00 0.00 77 1011.7
20260906073504 80 149 2.0 3.0 0.00 0.00 0.00 77 1011.7
20260906073303 80 149 1.0 3.0 0.00 0.00 0.00 76 1011.7
20260906073203 80 149 1.0 3.0 0.00 0.00 0.00 76 1011.7
20260906073104 80 148 1.0 3.0 0.00 0.00 0.00 76 1011.7
20260906073003 80 150 1.0 3.0 0.00 0.00 0.00 76 1011.7
20260906072803 80 143 1.0 3.0 0.00 0.00 0.00 76 1011.8
20260906072703 80 139 1.0 3.0 0.00 0.00 0.00 76 1011.8
20260906072604 80 136 1.0 4.0 0.00 0.00 0.00 76 1011.7
20260906072503 80 134 1.0 4.0 0.00 0.00 0.00 76 1011.8
20260906072404 80 130 1.0 4.0 0.00 0.00 0.00 76 1011.8
20260906072204 80 131 1.0 4.0 0.00 0.00 0.00 76 1011.8
20260906072103 80 131 1.0 4.0 0.00 0.00 0.00 76 1011.9
20260906072004 80 130 1.0 4.0 0.00 0.00 0.00 76 1011.9
20260906071903 80 133 1.0 4.0 0.00 0.00 0.00 76 1011.9
20260906071703 80 139 1.0 4.0 0.00 0.00 0.00 76 1011.9
20260906071604 80 143 1.0 4.0 0.00 0.00 0.00 76 1011.9
20260906071404 80 155 1.0 4.0 0.00 0.00 0.00 76 1012.0
20260906071303 80 155 1.0 4.0 0.00 0.00 0.00 76 1012.0
20260906071204 80 155 2.0 4.0 0.00 0.00 0.00 76 1011.9
20260906071103 80 155 2.0 4.0 0.00 0.00 0.00 76 1011.9
20260906071004 80 155 2.0 4.0 0.00 0.00 0.00 76 1011.9
20260906070903 80 155 2.0 4.0 0.00 0.00 0.00 76 1011.9
20260906070804 80 155 2.0 4.0 0.00 0.00 0.00 75 1011.9
20260906070703 80 155 2.0 4.0 0.00 0.00 0.00 75 1011.9
20260906070604 80 154 2.0 4.0 0.00 0.00 0.00 75 1011.9
20260906070404 80 153 2.0 4.0 0.00 0.00 0.00 75 1012.0
20260906070303 80 154 2.0 4.0 0.00 0.00 0.00 75 1012.0
20260906070204 80 154 1.0 4.0 0.00 0.00 0.00 75 1012.0
20260906070103 80 153 1.0 4.0 0.00 0.00 0.00 75 1012.1
20260906070004 80 149 1.0 4.0 0.00 0.00 0.00 75 1012.1
20260906065903 80 144 1.0 5.0 0.00 0.00 0.00 75 1012.1
20260906065804 80 141 2.0 5.0 0.00 0.00 0.00 75 1012.1
20260906065703 80 141 2.0 5.0 0.00 0.00 0.00 75 1012.1
20260906065604 80 138 1.0 5.0 0.00 0.00 0.00 75 1012.1
20260906065305 80 134 2.0 5.0 0.00 0.00 0.00 75 1012.2
20260906065203 80 137 2.0 5.0 0.00 0.00 0.00 75 1012.2
20260906065104 80 138 2.0 5.0 0.00 0.00 0.00 75 1012.2
20260906065003 80 140 2.0 6.0 0.00 0.00 0.00 75 1012.2
20260906064903 80 142 2.0 6.0 0.00 0.00 0.00 75 1012.2
20260906064803 80 143 2.0 6.0 0.00 0.00 0.00 75 1012.2
20260906064704 80 143 2.0 6.0 0.00 0.00 0.00 75 1012.2
20260906064604 80 143 2.0 6.0 0.00 0.00 0.00 74 1012.3
20260906064503 81 144 2.0 6.0 0.00 0.00 0.00 74 1012.2
20260906064404 80 145 2.0 6.0 0.00 0.00 0.00 74 1012.3
20260906064303 81 146 2.0 6.0 0.00 0.00 0.00 74 1012.3
20260906064204 81 146 2.0 6.0 0.00 0.00 0.00 74 1012.3
20260906064004 81 146 2.0 4.0 0.00 0.00 0.00 74 1012.3
20260906063903 81 146 2.0 4.0 0.00 0.00 0.00 74 1012.3
20260906063703 81 147 2.0 4.0 0.00 0.00 0.00 74 1012.3
20260906063603 81 146 2.0 4.0 0.00 0.00 0.00 74 1012.3
20260906063503 81 145 2.0 4.0 0.00 0.00 0.00 74 1012.3
20260906063403 81 144 2.0 4.0 0.00 0.00 0.00 74 1012.3
20260906063003 81 142 2.0 6.0 0.00 0.00 0.00 74 1012.3
20260906062903 81 142 2.0 6.0 0.00 0.00 0.00 74 1012.3
20260906062803 81 142 2.0 6.0 0.00 0.00 0.00 74 1012.3
20260906062703 81 142 2.0 6.0 0.00 0.00 0.00 74 1012.3
20260906062603 81 142 2.0 6.0 0.00 0.00 0.00 74 1012.2
20260906062503 81 142 2.0 6.0 0.00 0.00 0.00 74 1012.3
20260906062404 81 143 2.0 6.0 0.00 0.00 0.00 74 1012.3
20260906062305 81 145 2.0 6.0 0.00 0.00 0.00 74 1012.3
20260906062103 81 147 3.0 6.0 0.00 0.00 0.00 74 1012.3
20260906062004 81 147 3.0 6.0 0.00 0.00 0.00 74 1012.3
20260906061903 81 147 3.0 6.0 0.00 0.00 0.00 74 1012.3
20260906061804 81 147 2.0 6.0 0.00 0.00 0.00 74 1012.3
20260906061703 81 147 3.0 6.0 0.00 0.00 0.00 74 1012.3
20260906061503 81 147 3.0 6.0 0.00 0.00 0.00 73 1012.3
20260906061303 81 146 3.0 6.0 0.00 0.00 0.00 73 1012.4
20260906061203 81 147 3.0 6.0 0.00 0.00 0.00 73 1012.4
20260906061103 81 147 3.0 6.0 0.00 0.00 0.00 73 1012.4
20260906061004 81 147 3.0 6.0 0.00 0.00 0.00 73 1012.4
20260906060904 81 148 3.0 6.0 0.00 0.00 0.00 73 1012.3
20260906060804 81 148 3.0 6.0 0.00 0.00 0.00 73 1012.3
20260906060604 81 149 3.0 6.0 0.00 0.00 0.00 73 1012.3
20260906060303 81 151 2.0 4.0 0.00 0.00 0.00 73 1012.3
20260906060204 81 151 2.0 4.0 0.00 0.00 0.00 73 1012.2
20260906060103 81 153 2.0 4.0 0.00 0.00 0.00 73 1012.3
20260906060004 81 153 2.0 4.0 0.00 0.00 0.00 73 1012.3
20260906055903 81 154 2.0 4.0 0.00 0.00 0.00 73 1012.3
20260906055804 81 155 2.0 4.0 0.00 0.00 0.00 73 1012.3
20260906055604 81 156 2.0 4.0 0.00 0.00 0.00 73 1012.2
20260906055503 81 157 2.0 4.0 0.00 0.00 0.00 73 1012.2
20260906055404 81 158 2.0 4.0 0.00 0.00 0.00 73 1012.2
20260906055306 81 160 2.0 4.0 0.00 0.00 0.00 73 1012.2
20260906055203 81 159 2.0 4.0 0.00 0.00 0.00 73 1012.3
20260906055103 81 158 2.0 4.0 0.00 0.00 0.00 73 1012.4
20260906055003 81 156 2.0 4.0 0.00 0.00 0.00 73 1012.4
20260906054803 81 154 2.0 6.0 0.00 0.00 0.00 73 1012.4
20260906054703 81 153 2.0 6.0 0.00 0.00 0.00 73 1012.5
20260906054604 81 152 2.0 6.0 0.00 0.00 0.00 73 1012.5
20260906054403 81 151 2.0 6.0 0.00 0.00 0.00 72 1012.5
20260906054303 81 150 2.0 6.0 0.00 0.00 0.00 72 1012.5
20260906054104 81 149 2.0 6.0 0.00 0.00 0.00 72 1012.5
20260906054004 81 150 2.0 6.0 0.00 0.00 0.00 72 1012.4
20260906053903 81 151 2.0 6.0 0.00 0.00 0.00 72 1012.5
20260906053804 81 152 2.0 6.0 0.00 0.00 0.00 72 1012.5
20260906053703 81 152 2.0 6.0 0.00 0.00 0.00 72 1012.4
20260906053603 81 153 2.0 6.0 0.00 0.00 0.00 72 1012.4
20260906053504 81 153 2.0 6.0 0.00 0.00 0.00 72 1012.5
20260906053303 81 154 2.0 6.0 0.00 0.00 0.00 72 1012.5
20260906053203 81 154 2.0 6.0 0.00 0.00 0.00 72 1012.4
20260906053103 81 156 2.0 6.0 0.00 0.00 0.00 72 1012.4
20260906053003 81 156 2.0 6.0 0.00 0.00 0.00 72 1012.4
20260906052904 81 158 2.0 4.0 0.00 0.00 0.00 72 1012.4
20260906052803 81 157 2.0 5.0 0.00 0.00 0.00 72 1012.4
20260906052605 81 161 2.0 5.0 0.00 0.00 0.00 72 1012.3
20260906052503 81 161 2.0 5.0 0.00 0.00 0.00 72 1012.4
20260906052404 81 160 2.0 7.0 0.00 0.00 0.00 71 1012.4
20260906052305 81 160 3.0 7.0 0.00 0.00 0.00 71 1012.4
20260906052204 81 159 3.0 7.0 0.00 0.00 0.00 71 1012.4
20260906052103 81 159 3.0 7.0 0.00 0.00 0.00 71 1012.4
20260906052005 82 157 3.0 7.0 0.00 0.00 0.00 71 1012.4
20260906051904 82 155 3.0 7.0 0.00 0.00 0.00 71 1012.4
20260906051804 82 154 3.0 7.0 0.00 0.00 0.00 71 1012.4
20260906051703 82 153 3.0 7.0 0.00 0.00 0.00 71 1012.4
20260906051604 82 151 3.0 7.0 0.00 0.00 0.00 71 1012.5
20260906051503 82 150 3.0 7.0 0.00 0.00 0.00 71 1012.5
20260906051303 82 149 3.0 7.0 0.00 0.00 0.00 71 1012.5
20260906050804 82 142 3.0 7.0 0.00 0.00 0.00 71 1012.5
20260906050703 82 140 3.0 8.0 0.00 0.00 0.00 71 1012.5
20260906050604 82 138 3.0 8.0 0.00 0.00 0.00 71 1012.5
20260906050503 82 138 3.0 8.0 0.00 0.00 0.00 71 1012.5
20260906050404 82 139 3.0 8.0 0.00 0.00 0.00 71 1012.6
20260906050303 82 137 3.0 8.0 0.00 0.00 0.00 70 1012.6
20260906050203 82 138 3.0 8.0 0.00 0.00 0.00 70 1012.6
20260906045804 82 141 3.0 8.0 0.00 0.00 0.00 70 1012.6
20260906045603 82 141 3.0 7.0 0.00 0.00 0.00 70 1012.6
20260906045504 82 142 4.0 8.0 0.00 0.00 0.00 70 1012.6
20260906045403 82 142 4.0 8.0 0.00 0.00 0.00 70 1012.6
20260906045306 82 142 4.0 9.0 0.00 0.00 0.00 70 1012.6
20260906045203 82 143 4.0 9.0 0.00 0.00 0.00 70 1012.5
20260906045004 82 144 4.0 9.0 0.00 0.00 0.00 69 1012.5
20260906044903 82 145 5.0 9.0 0.00 0.00 0.00 69 1012.5
20260906044804 82 144 5.0 9.0 0.00 0.00 0.00 69 1012.5
20260906044603 82 145 5.0 9.0 0.00 0.00 0.00 69 1012.5
20260906044503 82 145 4.0 9.0 0.00 0.00 0.00 69 1012.6
20260906044403 82 144 4.0 9.0 0.00 0.00 0.00 69 1012.5
20260906044004 82 138 4.0 10.0 0.00 0.00 0.00 69 1012.5
20260906043803 82 135 4.0 11.0 0.00 0.00 0.00 69 1012.6
20260906043603 82 133 4.0 11.0 0.00 0.00 0.00 69 1012.6
20260906043503 82 133 5.0 11.0 0.00 0.00 0.00 69 1012.6
20260906043403 82 132 5.0 11.0 0.00 0.00 0.00 69 1012.6
20260906043303 82 130 5.0 11.0 0.00 0.00 0.00 69 1012.7
20260906043204 83 129 5.0 11.0 0.00 0.00 0.00 69 1012.7
20260906043003 83 132 5.0 11.0 0.00 0.00 0.00 69 1012.6
20260906042903 83 132 5.0 11.0 0.00 0.00 0.00 69 1012.6
20260906042803 83 131 5.0 11.0 0.00 0.00 0.00 69 1012.6
20260906042704 83 129 5.0 11.0 0.00 0.00 0.00 69 1012.7
20260906042603 83 128 5.0 11.0 0.00 0.00 0.00 69 1012.7
20260906042503 83 128 5.0 11.0 0.00 0.00 0.00 68 1012.6
20260906042403 83 129 6.0 11.0 0.00 0.00 0.00 68 1012.6
20260906042306 83 129 6.0 11.0 0.00 0.00 0.00 68 1012.6
20260906042203 83 128 6.0 11.0 0.00 0.00 0.00 68 1012.5
20260906042103 83 128 5.0 11.0 0.00 0.00 0.00 68 1012.5
20260906042004 83 125 5.0 9.0 0.00 0.00 0.00 68 1012.6
20260906041503 83 121 6.0 12.0 0.00 0.00 0.00 68 1012.6
20260906041404 83 121 6.0 12.0 0.00 0.00 0.00 68 1012.6
20260906041203 83 121 6.0 12.0 0.00 0.00 0.00 68 1012.6
20260906041102 83 121 6.0 12.0 0.00 0.00 0.00 68 1012.6
20260906041003 83 121 6.0 12.0 0.00 0.00 0.00 68 1012.6
20260906040903 83 120 6.0 12.0 0.00 0.00 0.00 68 1012.6
20260906040803 83 120 6.0 12.0 0.00 0.00 0.00 68 1012.6
20260906040703 83 119 6.0 12.0 0.00 0.00 0.00 67 1012.6
20260906040603 83 119 6.0 12.0 0.00 0.00 0.00 67 1012.6
20260906040503 83 119 5.0 11.0 0.00 0.00 0.00 67 1012.5
20260906040303 83 117 6.0 11.0 0.00 0.00 0.00 67 1012.5
20260906040203 83 116 6.0 11.0 0.00 0.00 0.00 67 1012.5
20260906040103 83 116 6.0 11.0 0.00 0.00 0.00 67 1012.5
20260906035903 84 117 6.0 11.0 0.00 0.00 0.00 67 1012.5
20260906035804 84 117 6.0 11.0 0.00 0.00 0.00 67 1012.5
20260906035703 84 116 6.0 11.0 0.00 0.00 0.00 67 1012.6
20260906035603 84 116 6.0 11.0 0.00 0.00 0.00 67 1012.5
20260906035503 84 118 6.0 11.0 0.00 0.00 0.00 67 1012.5
20260906035404 84 120 6.0 11.0 0.00 0.00 0.00 67 1012.5
20260906035306 84 120 6.0 11.0 0.00 0.00 0.00 66 1012.5
20260906035103 84 121 5.0 11.0 0.00 0.00 0.00 66 1012.5
20260906035003 84 123 6.0 11.0 0.00 0.00 0.00 66 1012.5
20260906034705 84 123 6.0 13.0 0.00 0.00 0.00 66 1012.6
20260906034603 84 122 7.0 14.0 0.00 0.00 0.00 66 1012.6
20260906034403 84 120 7.0 14.0 0.00 0.00 0.00 66 1012.6
20260906034302 84 120 7.0 14.0 0.00 0.00 0.00 66 1012.6
20260906034203 84 120 7.0 14.0 0.00 0.00 0.00 66 1012.6
20260906034104 84 119 7.0 14.0 0.00 0.00 0.00 66 1012.6
20260906034003 84 117 7.0 14.0 0.00 0.00 0.00 66 1012.6
20260906033802 84 117 7.0 14.0 0.00 0.00 0.00 65 1012.5
20260906033703 84 118 7.0 14.0 0.00 0.00 0.00 65 1012.5
20260906033604 84 118 6.0 12.0 0.00 0.00 0.00 65 1012.5
20260906033403 84 118 6.0 12.0 0.00 0.00 0.00 65 1012.4
20260906033303 84 120 6.0 11.0 0.00 0.00 0.00 65 1012.4
20260906033203 84 122 6.0 12.0 0.00 0.00 0.00 65 1012.4
20260906033103 84 123 6.0 12.0 0.00 0.00 0.00 64 1012.5
20260906033003 85 122 6.0 12.0 0.00 0.00 0.00 64 1012.5
20260906032903 85 122 6.0 12.0 0.00 0.00 0.00 64 1012.5
20260906032803 85 123 6.0 12.0 0.00 0.00 0.00 64 1012.4
20260906032703 85 124 6.0 12.0 0.00 0.00 0.00 64 1012.4
20260906032604 85 124 6.0 12.0 0.00 0.00 0.00 64 1012.4
20260906032503 85 124 7.0 12.0 0.00 0.00 0.00 64 1012.4
20260906032403 85 124 7.0 12.0 0.00 0.00 0.00 63 1012.4
20260906032306 85 123 7.0 12.0 0.00 0.00 0.00 63 1012.3
20260906032203 85 122 6.0 11.0 0.00 0.00 0.00 63 1012.4
20260906032103 85 121 6.0 11.0 0.00 0.00 0.00 63 1012.4
20260906032002 85 121 6.0 12.0 0.00 0.00 0.00 63 1012.4
20260906031903 85 120 7.0 12.0 0.00 0.00 0.00 63 1012.4
20260906031802 85 119 7.0 12.0 0.00 0.00 0.00 63 1012.4
20260906031503 85 117 7.0 12.0 0.00 0.00 0.00 62 1012.3
20260906031303 85 115 7.0 12.0 0.00 0.00 0.00 62 1012.3
20260906031003 85 115 7.0 15.0 0.00 0.00 0.00 62 1012.2
20260906030903 85 117 7.0 15.0 0.00 0.00 0.00 62 1012.2
20260906030803 85 116 7.0 15.0 0.00 0.00 0.00 61 1012.2
20260906030703 86 117 7.0 15.0 0.00 0.00 0.00 61 1012.2
20260906030503 86 117 7.0 15.0 0.00 0.00 0.00 61 1012.2
20260906030403 86 117 8.0 15.0 0.00 0.00 0.00 60 1012.1
20260906030303 86 117 8.0 15.0 0.00 0.00 0.00 60 1012.1
20260906030202 86 117 8.0 15.0 0.00 0.00 0.00 60 1012.1
20260906025903 86 117 8.0 15.0 0.00 0.00 0.00 60 1012.1
20260906025704 86 117 7.0 13.0 0.00 0.00 0.00 59 1012.1
20260906025603 86 117 7.0 14.0 0.00 0.00 0.00 59 1012.1
20260906025503 86 117 7.0 14.0 0.00 0.00 0.00 59 1012.0
20260906025403 86 117 7.0 14.0 0.00 0.00 0.00 59 1012.0
20260906025003 86 117 6.0 14.0 0.00 0.00 0.00 59 1011.9
20260906024903 86 116 6.0 14.0 0.00 0.00 0.00 59 1012.0
20260906024802 86 116 6.0 14.0 0.00 0.00 0.00 59 1011.9
20260906024703 86 117 6.0 14.0 0.00 0.00 0.00 58 1011.9
20260906024602 86 117 6.0 11.0 0.00 0.00 0.00 58 1011.9
20260906024503 86 118 6.0 11.0 0.00 0.00 0.00 58 1011.9
20260906024403 86 116 6.0 13.0 0.00 0.00 0.00 58 1011.9
20260906024303 86 115 6.0 13.0 0.00 0.00 0.00 58 1011.9
20260906024203 86 115 6.0 13.0 0.00 0.00 0.00 58 1011.9
20260906024103 86 115 7.0 13.0 0.00 0.00 0.00 58 1011.9
20260906024003 86 113 6.0 13.0 0.00 0.00 0.00 58 1011.8
20260906023903 86 113 7.0 13.0 0.00 0.00 0.00 58 1011.8
20260906023803 86 112 7.0 13.0 0.00 0.00 0.00 58 1011.8
20260906023703 86 112 6.0 13.0 0.00 0.00 0.00 58 1011.7
20260906023603 86 112 6.0 13.0 0.00 0.00 0.00 57 1011.8
20260906023503 87 111 6.0 13.0 0.00 0.00 0.00 57 1011.7
20260906023404 87 111 6.0 13.0 0.00 0.00 0.00 57 1011.7
20260906023303 87 111 6.0 13.0 0.00 0.00 0.00 57 1011.7
20260906023203 87 110 7.0 13.0 0.00 0.00 0.00 57 1011.6
20260906023103 87 110 6.0 13.0 0.00 0.00 0.00 57 1011.6
20260906023003 87 111 7.0 13.0 0.00 0.00 0.00 57 1011.6
20260906022903 87 110 6.0 13.0 0.00 0.00 0.00 57 1011.6
20260906022803 87 108 7.0 13.0 0.00 0.00 0.00 55 1011.5
20260906022704 87 107 7.0 13.0 0.00 0.00 0.00 55 1011.5
20260906022603 87 106 7.0 13.0 0.00 0.00 0.00 55 1011.4
20260906022504 87 106 7.0 13.0 0.00 0.00 0.00 55 1011.4
20260906022403 87 106 7.0 12.0 0.00 0.00 0.00 55 1011.4
20260906022306 87 107 7.0 12.0 0.00 0.00 0.00 55 1011.4
20260906022203 87 107 7.0 12.0 0.00 0.00 0.00 55 1011.4
20260906022102 87 108 7.0 13.0 0.00 0.00 0.00 55 1011.4
20260906022003 87 108 7.0 13.0 0.00 0.00 0.00 55 1011.4
20260906021903 87 109 7.0 14.0 0.00 0.00 0.00 55 1011.4
20260906021803 87 108 7.0 14.0 0.00 0.00 0.00 55 1011.4
20260906021703 87 109 7.0 14.0 0.00 0.00 0.00 55 1011.3
20260906021403 87 108 7.0 14.0 0.00 0.00 0.00 55 1011.3
20260906021303 87 108 7.0 14.0 0.00 0.00 0.00 55 1011.3
20260906021202 88 108 7.0 14.0 0.00 0.00 0.00 55 1011.2
20260906021103 88 107 7.0 14.0 0.00 0.00 0.00 55 1011.2
20260906021003 88 108 7.0 14.0 0.00 0.00 0.00 55 1011.2
20260906020903 88 107 7.0 12.0 0.00 0.00 0.00 55 1011.2
20260906020703 88 108 7.0 12.0 0.00 0.00 0.00 55 1011.1
20260906020604 88 107 6.0 11.0 0.00 0.00 0.00 55 1011.1
20260906020503 88 108 7.0 11.0 0.00 0.00 0.00 55 1011.0
20260906020403 88 108 7.0 11.0 0.00 0.00 0.00 55 1011.0
20260906020303 88 108 7.0 12.0 0.00 0.00 0.00 55 1011.0
20260906020203 88 108 7.0 12.0 0.00 0.00 0.00 56 1010.9
20260906020103 88 108 7.0 12.0 0.00 0.00 0.00 56 1010.9
20260906020003 88 108 7.0 13.0 0.00 0.00 0.00 56 1010.9
20260906015903 88 109 6.0 13.0 0.00 0.00 0.00 56 1010.9
20260906015804 88 109 7.0 13.0 0.00 0.00 0.00 56 1010.9
20260906015703 88 110 7.0 13.0 0.00 0.00 0.00 56 1010.8
20260906015403 88 111 7.0 13.0 0.00 0.00 0.00 56 1010.7
20260906015305 88 110 7.0 13.0 0.00 0.00 0.00 56 1010.8
20260906015204 88 110 7.0 13.0 0.00 0.00 0.00 56 1010.7
20260906015003 88 108 7.0 11.0 0.00 0.00 0.00 56 1010.7
20260906014903 88 107 7.0 11.0 0.00 0.00 0.00 56 1010.7
20260906014803 88 108 7.0 11.0 0.00 0.00 0.00 56 1010.7
20260906014703 88 107 7.0 14.0 0.00 0.00 0.00 56 1010.8
20260906014604 88 108 7.0 14.0 0.00 0.00 0.00 56 1010.8
20260906014503 88 108 8.0 14.0 0.00 0.00 0.00 56 1010.8
20260906014404 88 109 8.0 14.0 0.00 0.00 0.00 56 1010.8
20260906014303 89 109 8.0 14.0 0.00 0.00 0.00 56 1010.8
20260906014103 89 110 8.0 14.0 0.00 0.00 0.00 56 1010.7
20260906014003 89 110 8.0 14.0 0.00 0.00 0.00 55 1010.7
20260906013903 89 109 9.0 14.0 0.00 0.00 0.00 55 1010.7
20260906013803 89 108 9.0 14.0 0.00 0.00 0.00 55 1010.7
20260906013702 89 109 8.0 14.0 0.00 0.00 0.00 55 1010.7
20260906013603 89 108 8.0 14.0 0.00 0.00 0.00 55 1010.6
20260906013503 89 108 8.0 14.0 0.00 0.00 0.00 55 1010.6
20260906013403 89 107 8.0 14.0 0.00 0.00 0.00 55 1010.6
20260906013303 89 106 8.0 14.0 0.00 0.00 0.00 55 1010.6
20260906013203 89 105 8.0 15.0 0.00 0.00 0.00 55 1010.6
20260906013102 89 106 8.0 15.0 0.00 0.00 0.00 55 1010.5
20260906012902 89 106 7.0 15.0 0.00 0.00 0.00 55 1010.5
20260906012803 89 106 7.0 15.0 0.00 0.00 0.00 55 1010.5
20260906012503 89 105 8.0 15.0 0.00 0.00 0.00 55 1010.5
20260906012403 89 104 8.0 15.0 0.00 0.00 0.00 55 1010.5
20260906012306 89 105 7.0 15.0 0.00 0.00 0.00 55 1010.5
20260906012202 89 104 7.0 14.0 0.00 0.00 0.00 55 1010.4
20260906012103 89 103 7.0 14.0 0.00 0.00 0.00 55 1010.5
20260906012003 89 102 7.0 14.0 0.00 0.00 0.00 55 1010.5
20260906011803 90 100 7.0 14.0 0.00 0.00 0.00 55 1010.5
20260906011703 90 101 7.0 14.0 0.00 0.00 0.00 55 1010.5
20260906011502 90 99 6.0 13.0 0.00 0.00 0.00 55 1010.4
20260906011403 90 100 6.0 13.0 0.00 0.00 0.00 55 1010.4
20260906011203 90 102 7.0 13.0 0.00 0.00 0.00 54 1010.3
20260906011103 90 102 7.0 13.0 0.00 0.00 0.00 54 1010.3
20260906011003 90 102 7.0 13.0 0.00 0.00 0.00 54 1010.3
20260906010803 90 105 7.0 12.0 0.00 0.00 0.00 54 1010.2
20260906010503 90 107 7.0 11.0 0.00 0.00 0.00 53 1010.2
20260906010303 90 108 7.0 12.0 0.00 0.00 0.00 53 1010.2
20260906010203 90 107 7.0 13.0 0.00 0.00 0.00 53 1010.2
20260906010003 90 108 8.0 15.0 0.00 0.00 0.00 53 1010.2
20260906005903 90 106 8.0 15.0 0.00 0.00 0.00 53 1010.2
20260906005803 91 105 8.0 15.0 0.00 0.00 0.00 53 1010.2
20260906005603 91 103 8.0 15.0 0.00 0.00 0.00 53 1010.2
20260906005502 91 101 8.0 15.0 0.00 0.00 0.00 53 1010.2
20260906005306 91 99 8.0 15.0 0.00 0.00 0.00 53 1010.1
20260906005204 91 98 8.0 15.0 0.00 0.00 0.00 53 1010.2
20260906005102 91 95 9.0 15.0 0.00 0.00 0.00 52 1010.2
20260906005003 91 94 9.0 9.0 0.00 0.00 0.00 52 1010.2
20260906004902 91 94 8.0 11.0 0.00 0.00 0.00 52 1010.1
20260906004803 91 94 9.0 11.0 0.00 0.00 0.00 52 1010.2
20260906004006 92 108 8.0 16.0 0.00 0.00 0.00 52 1010.3
20260906003905 92 108 8.0 16.0 0.00 0.00 0.00 52 1010.3
20260906003605 92 104 7.0 16.0 0.00 0.00 0.00 51 1010.2
20260906003506 92 105 7.0 15.0 0.00 0.00 0.00 51 1010.2
20260906003405 92 105 7.0 15.0 0.00 0.00 0.00 51 1010.3
20260906003205 92 104 8.0 15.0 0.00 0.00 0.00 51 1010.3
20260906003107 92 105 8.0 15.0 0.00 0.00 0.00 51 1010.4
20260906003005 92 105 8.0 15.0 0.00 0.00 0.00 50 1010.3
20260906002906 93 106 8.0 15.0 0.00 0.00 0.00 50 1010.3
20260906002806 93 107 8.0 15.0 0.00 0.00 0.00 50 1010.3
20260906002705 93 110 8.0 15.0 0.00 0.00 0.00 50 1010.3
20260906002606 93 112 8.0 15.0 0.00 0.00 0.00 49 1010.3
20260906002406 93 114 8.0 15.0 0.00 0.00 0.00 49 1010.3
20260906002306 93 112 8.0 15.0 0.00 0.00 0.00 48 1010.3
20260906002205 93 112 8.0 15.0 0.00 0.00 0.00 48 1010.3
20260906002106 93 111 8.0 15.0 0.00 0.00 0.00 48 1010.3
20260906002006 93 111 8.0 15.0 0.00 0.00 0.00 48 1010.3
20260906001905 93 110 8.0 15.0 0.00 0.00 0.00 48 1010.3
20260906001806 93 112 8.0 15.0 0.00 0.00 0.00 48 1010.3
20260906001705 94 113 9.0 16.0 0.00 0.00 0.00 48 1010.3
20260906001605 94 114 9.0 16.0 0.00 0.00 0.00 48 1010.3
20260906001405 94 115 9.0 17.0 0.00 0.00 0.00 48 1010.2
20260906001206 94 117 10.0 17.0 0.00 0.00 0.00 47 1010.2
20260906001106 94 118 9.0 17.0 0.00 0.00 0.00 47 1010.1
20260906001005 94 120 9.0 17.0 0.00 0.00 0.00 47 1010.1
20260906000906 94 120 9.0 17.0 0.00 0.00 0.00 47 1010.1
20260906000805 94 118 9.0 17.0 0.00 0.00 0.00 47 1010.2
20260906000505 94 112 8.0 16.0 0.00 0.00 0.00 46 1010.1
20260906000405 94 113 8.0 16.0 0.00 0.00 0.00 46 1010.1
20260906000306 95 111 8.0 16.0 0.00 0.00 0.00 45 1010.1
20260906000205 95 110 8.0 14.0 0.00 0.00 0.00 46 1010.0
20260906000106 95 109 8.0 14.0 0.00 0.00 0.00 46 1010.0
20260906000005 95 107 8.0 14.0 0.00 0.00 0.00 45 1010.0
20260905235906 95 107 8.0 14.0 0.00 0.00 0.00 45 1010.0
20260905235805 95 108 8.0 14.0 0.00 0.00 0.00 45 1010.0
20260905235706 95 108 8.0 14.0 0.00 0.00 0.00 45 1010.0
20260905235606 95 107 8.0 14.0 0.00 0.00 0.00 45 1010.0
20260905235506 95 107 8.0 13.0 0.00 0.00 0.00 45 1010.0
20260905235407 95 107 8.0 13.0 0.00 0.00 0.00 44 1010.0
20260905235307 95 107 8.0 13.0 0.00 0.00 0.00 44 1010.0
20260905235205 95 108 7.0 13.0 0.00 0.00 0.00 44 1010.0
20260905235106 95 108 7.0 12.0 0.00 0.00 0.00 44 1010.0
20260905235006 96 110 7.0 12.0 0.00 0.00 0.00 44 1010.0
20260905234905 96 110 6.0 12.0 0.00 0.00 0.00 44 1010.0
20260905234805 96 110 6.0 12.0 0.00 0.00 0.00 43 1010.0
20260905234705 96 110 6.0 12.0 0.00 0.00 0.00 43 1010.0
20260905234605 96 109 6.0 12.0 0.00 0.00 0.00 43 1010.0
20260905234405 96 106 5.0 11.0 0.00 0.00 0.00 41 1009.9
20260905234306 96 104 5.0 11.0 0.00 0.00 0.00 41 1009.9
20260905234206 96 102 5.0 11.0 0.00 0.00 0.00 41 1009.9
20260905234106 96 100 6.0 11.0 0.00 0.00 0.00 41 1009.9
20260905234005 97 101 6.0 11.0 0.00 0.00 0.00 41 1009.9
20260905233805 96 103 6.0 11.0 0.00 0.00 0.00 41 1009.9
20260905233706 96 101 6.0 11.0 0.00 0.00 0.00 41 1009.9
20260905233606 96 102 7.0 11.0 0.00 0.00 0.00 41 1009.9
20260905233506 96 106 7.0 13.0 0.00 0.00 0.00 41 1009.9
20260905233405 96 107 7.0 13.0 0.00 0.00 0.00 41 1009.9
20260905233206 96 107 7.0 13.0 0.00 0.00 0.00 40 1009.9
20260905233105 97 105 7.0 13.0 0.00 0.00 0.00 40 1009.8
20260905233005 97 104 7.0 13.0 0.00 0.00 0.00 40 1009.9
20260905232705 97 110 7.0 13.0 0.00 0.00 0.00 39 1009.9
20260905232605 98 112 7.0 13.0 0.00 0.00 0.00 39 1009.9
20260905232406 98 115 6.0 12.0 0.00 0.00 0.00 39 1009.9
20260905232306 98 118 7.0 12.0 0.00 0.00 0.00 39 1009.9
20260905232206 98 122 6.0 12.0 0.00 0.00 0.00 38 1009.8
20260905232105 97 126 6.0 11.0 0.00 0.00 0.00 37 1009.8
20260905232005 97 126 6.0 11.0 0.00 0.00 0.00 37 1009.8
20260905231905 98 125 6.0 11.0 0.00 0.00 0.00 37 1009.8
20260905231706 98 121 6.0 13.0 0.00 0.00 0.00 37 1009.8
20260905231605 98 119 6.0 13.0 0.00 0.00 0.00 37 1009.8
20260905231506 98 117 6.0 13.0 0.00 0.00 0.00 37 1009.8
20260905231406 98 115 6.0 13.0 0.00 0.00 0.00 37 1009.8
20260905231305 98 112 6.0 13.0 0.00 0.00 0.00 37 1009.8
20260905231206 98 108 6.0 13.0 0.00 0.00 0.00 37 1009.8
20260905231105 98 108 5.0 13.0 0.00 0.00 0.00 37 1009.8
20260905230905 98 108 4.0 13.0 0.00 0.00 0.00 37 1009.8
20260905230805 98 108 4.0 11.0 0.00 0.00 0.00 37 1009.7
20260905230705 98 106 4.0 11.0 0.00 0.00 0.00 37 1009.7
20260905230506 98 103 4.0 12.0 0.00 0.00 0.00 38 1009.8
20260905230405 98 107 4.0 12.0 0.00 0.00 0.00 38 1009.8
20260905230306 98 111 4.0 12.0 0.00 0.00 0.00 38 1009.8
20260905230106 98 114 5.0 12.0 0.00 0.00 0.00 37 1009.8
20260905230005 98 113 5.0 12.0 0.00 0.00 0.00 37 1009.8
20260905225906 98 113 5.0 12.0 0.00 0.00 0.00 37 1009.8
20260905225805 98 110 6.0 12.0 0.00 0.00 0.00 37 1009.9
20260905225706 98 108 5.0 12.0 0.00 0.00 0.00 37 1009.9
20260905225605 98 105 5.0 10.0 0.00 0.00 0.00 37 1009.9
20260905225405 98 98 5.0 10.0 0.00 0.00 0.00 37 1009.9
20260905225306 98 93 5.0 10.0 0.00 0.00 0.00 37 1009.8
20260905225206 98 89 5.0 10.0 0.00 0.00 0.00 37 1009.9
20260905225106 98 88 5.0 10.0 0.00 0.00 0.00 36 1009.9
20260905225005 98 85 5.0 10.0 0.00 0.00 0.00 36 1009.9
20260905224805 99 81 5.0 10.0 0.00 0.00 0.00 35 1009.8
20260905224705 99 83 5.0 10.0 0.00 0.00 0.00 35 1009.8
20260905224505 99 88 6.0 10.0 0.00 0.00 0.00 36 1009.8
20260905224405 99 91 6.0 10.0 0.00 0.00 0.00 35 1009.8
20260905224305 99 94 6.0 10.0 0.00 0.00 0.00 35 1009.8
20260905224205 99 98 6.0 12.0 0.00 0.00 0.00 35 1009.8
20260905224106 99 98 6.0 12.0 0.00 0.00 0.00 35 1009.8
20260905224006 99 101 6.0 12.0 0.00 0.00 0.00 35 1009.8
20260905223905 99 102 6.0 12.0 0.00 0.00 0.00 36 1009.8
20260905223805 99 102 6.0 12.0 0.00 0.00 0.00 36 1009.8
20260905223705 99 100 5.0 12.0 0.00 0.00 0.00 35 1009.8
20260905223605 99 99 5.0 12.0 0.00 0.00 0.00 35 1009.7
20260905223505 99 101 5.0 12.0 0.00 0.00 0.00 35 1009.7
20260905223405 99 102 5.0 12.0 0.00 0.00 0.00 35 1009.7
20260905223205 99 102 5.0 10.0 0.00 0.00 0.00 35 1009.7
20260905223106 99 104 5.0 12.0 0.00 0.00 0.00 35 1009.8
20260905223005 99 103 5.0 12.0 0.00 0.00 0.00 35 1009.8
20260905222905 99 103 4.0 12.0 0.00 0.00 0.00 35 1009.8
20260905222806 99 107 4.0 12.0 0.00 0.00 0.00 35 1009.8
20260905222705 99 114 4.0 12.0 0.00 0.00 0.00 36 1009.8
20260905222605 99 117 4.0 12.0 0.00 0.00 0.00 36 1009.8
20260905222505 99 115 4.0 12.0 0.00 0.00 0.00 36 1009.8
20260905222405 99 110 4.0 12.0 0.00 0.00 0.00 36 1009.8
20260905222306 99 104 4.0 12.0 0.00 0.00 0.00 36 1009.8
20260905222205 99 104 4.0 12.0 0.00 0.00 0.00 36 1009.8
20260905222105 98 105 4.0 11.0 0.00 0.00 0.00 37 1009.8
20260905222006 98 110 4.0 11.0 0.00 0.00 0.00 37 1009.8
20260905221906 98 115 5.0 11.0 0.00 0.00 0.00 37 1009.8
20260905221805 98 111 5.0 11.0 0.00 0.00 0.00 36 1009.7
20260905221706 99 107 5.0 11.0 0.00 0.00 0.00 36 1009.8
20260905221605 99 99 5.0 11.0 0.00 0.00 0.00 36 1009.8
20260905221505 99 94 6.0 11.0 0.00 0.00 0.00 36 1009.8
20260905221405 99 90 6.0 12.0 0.00 0.00 0.00 37 1009.8
20260905221305 99 88 6.0 12.0 0.00 0.00 0.00 37 1009.7
20260905221205 99 84 6.0 12.0 0.00 0.00 0.00 36 1009.7
20260905221005 99 77 5.0 12.0 0.00 0.00 0.00 36 1009.7
20260905220906 99 73 6.0 12.0 0.00 0.00 0.00 36 1009.7
20260905220805 98 78 6.0 12.0 0.00 0.00 0.00 37 1009.7
20260905220705 98 84 6.0 12.0 0.00 0.00 0.00 36 1009.7
20260905220605 99 89 6.0 13.0 0.00 0.00 0.00 36 1009.7
20260905220505 99 92 6.0 13.0 0.00 0.00 0.00 36 1009.8
20260905220405 99 96 5.0 13.0 0.00 0.00 0.00 36 1009.8
20260905220305 99 100 5.0 13.0 0.00 0.00 0.00 36 1009.8
20260905220205 99 99 5.0 13.0 0.00 0.00 0.00 36 1009.8
20260905220105 99 100 5.0 13.0 0.00 0.00 0.00 36 1009.8
20260905220005 100 103 5.0 13.0 0.00 0.00 0.00 36 1009.8
20260905215906 100 106 4.0 13.0 0.00 0.00 0.00 36 1009.8
20260905215605 100 107 4.0 10.0 0.00 0.00 0.00 36 1009.8
20260905215505 99 108 4.0 11.0 0.00 0.00 0.00 37 1009.8
20260905215406 99 109 4.0 11.0 0.00 0.00 0.00 37 1009.8
20260905215205 99 110 4.0 11.0 0.00 0.00 0.00 36 1009.8
20260905215105 99 102 4.0 11.0 0.00 0.00 0.00 36 1009.8
20260905214906 99 97 4.0 11.0 0.00 0.00 0.00 36 1009.8
20260905214805 99 97 4.0 11.0 0.00 0.00 0.00 36 1009.9
20260905214706 100 104 5.0 11.0 0.00 0.00 0.00 36 1009.9
20260905214606 99 117 4.0 11.0 0.00 0.00 0.00 36 1010.0
20260905214505 99 123 5.0 10.0 0.00 0.00 0.00 37 1010.0
20260905214305 99 124 5.0 11.0 0.00 0.00 0.00 36 1010.0
20260905214106 99 132 5.0 11.0 0.00 0.00 0.00 37 1010.1
20260905214005 99 139 5.0 11.0 0.00 0.00 0.00 37 1010.1
20260905213905 99 139 5.0 11.0 0.00 0.00 0.00 37 1010.1
20260905213805 99 134 5.0 12.0 0.00 0.00 0.00 37 1010.1
20260905213706 99 131 5.0 12.0 0.00 0.00 0.00 37 1010.1
20260905213605 99 129 5.0 12.0 0.00 0.00 0.00 37 1010.1
20260905213405 99 137 4.0 12.0 0.00 0.00 0.00 37 1010.1
20260905213305 99 143 5.0 12.0 0.00 0.00 0.00 37 1010.2
20260905213106 99 154 5.0 12.0 0.00 0.00 0.00 37 1010.2
20260905212906 100 166 5.0 12.0 0.00 0.00 0.00 37 1010.2
20260905212805 100 174 4.0 12.0 0.00 0.00 0.00 38 1010.2
20260905212706 99 181 4.0 10.0 0.00 0.00 0.00 38 1010.2
20260905212605 99 181 4.0 10.0 0.00 0.00 0.00 37 1010.2
20260905212506 99 178 4.0 10.0 0.00 0.00 0.00 37 1010.2
20260905212405 100 175 4.0 10.0 0.00 0.00 0.00 37 1010.3
20260905212306 99 168 4.0 9.0 0.00 0.00 0.00 37 1010.3
20260905212205 99 156 4.0 9.0 0.00 0.00 0.00 37 1010.3
20260905212105 99 148 3.0 9.0 0.00 0.00 0.00 37 1010.3
20260905212005 99 123 3.0 9.0 0.00 0.00 0.00 37 1010.3
20260905211905 99 100 3.0 7.0 0.00 0.00 0.00 37 1010.3
20260905211805 99 89 4.0 7.0 0.00 0.00 0.00 37 1010.4
20260905211705 99 82 4.0 9.0 0.00 0.00 0.00 37 1010.3
20260905211605 99 76 5.0 10.0 0.00 0.00 0.00 38 1010.4
20260905211505 99 75 5.0 10.0 0.00 0.00 0.00 38 1010.3
20260905211405 99 75 5.0 11.0 0.00 0.00 0.00 38 1010.4
20260905211305 99 79 5.0 11.0 0.00 0.00 0.00 38 1010.4
20260905211205 99 82 5.0 11.0 0.00 0.00 0.00 38 1010.4
20260905211105 99 83 5.0 11.0 0.00 0.00 0.00 38 1010.4
20260905210905 99 83 5.0 11.0 0.00 0.00 0.00 37 1010.5
20260905210805 100 84 5.0 11.0 0.00 0.00 0.00 37 1010.5
20260905210505 100 88 4.0 11.0 0.00 0.00 0.00 37 1010.5
20260905210405 100 84 4.0 9.0 0.00 0.00 0.00 37 1010.5
20260905210205 100 82 4.0 9.0 0.00 0.00 0.00 37 1010.6
20260905210105 100 88 4.0 9.0 0.00 0.00 0.00 38 1010.5
20260905210005 99 97 5.0 10.0 0.00 0.00 0.00 37 1010.6
20260905205905 99 103 5.0 10.0 0.00 0.00 0.00 37 1010.6
20260905205807 98 114 5.0 10.0 0.00 0.00 0.00 38 1010.6
20260905205705 98 124 5.0 10.0 0.00 0.00 0.00 38 1010.6
20260905205606 98 130 5.0 10.0 0.00 0.00 0.00 37 1010.6
20260905205406 99 141 4.0 10.0 0.00 0.00 0.00 38 1010.7
20260905205205 99 156 3.0 10.0 0.00 0.00 0.00 38 1010.8
20260905205105 99 159 3.0 10.0 0.00 0.00 0.00 39 1010.8
20260905205005 99 156 3.0 8.0 0.00 0.00 0.00 39 1010.7
20260905204905 99 136 3.0 8.0 0.00 0.00 0.00 38 1010.8
20260905204806 99 96 3.0 9.0 0.00 0.00 0.00 38 1010.8
20260905204605 99 76 4.0 9.0 0.00 0.00 0.00 39 1010.8
20260905204506 99 75 4.0 9.0 0.00 0.00 0.00 40 1010.9
20260905204405 98 73 4.0 9.0 0.00 0.00 0.00 40 1010.8
20260905204306 98 78 5.0 9.0 0.00 0.00 0.00 40 1010.9
20260905204205 98 84 5.0 9.0 0.00 0.00 0.00 40 1010.9
20260905204106 98 83 5.0 9.0 0.00 0.00 0.00 39 1010.9
20260905204005 98 83 5.0 9.0 0.00 0.00 0.00 39 1011.0
20260905203906 99 86 4.0 9.0 0.00 0.00 0.00 38 1011.0
20260905203805 99 91 4.0 9.0 0.00 0.00 0.00 39 1010.9
20260905203705 99 92 4.0 9.0 0.00 0.00 0.00 39 1010.9
20260905203605 99 98 3.0 9.0 0.00 0.00 0.00 39 1010.9
20260905203506 99 101 3.0 9.0 0.00 0.00 0.00 40 1010.9
20260905203405 99 101 3.0 9.0 0.00 0.00 0.00 40 1010.9